GEFSCGP_prec_meanprecacc_150.txt.gz
Total_Precipitation_Accumulation
0.00 0.00 0.00 0.00 0.01 0.01 0.01 0.04 0.10 0.13 0.12 0.18 0.29 0.48 0.63 0.62 0.77 1.16 1.37 1.34 1.31 1.56 2.01 2.35 2.56 2.68 2.90 2.96 3.05 2.97 3.11 3.47 3.74 3.60 3.27 3.03 2.71 2.45 2.24 2.08 1.97 1.98 1.99 2.16
0.00 0.01 0.00 0.01 0.01 0.01 0.02 0.06 0.13 0.15 0.13 0.21 0.36 0.58 0.74 0.82 1.06 1.22 1.14 1.14 1.31 1.59 2.02 2.34 2.55 2.65 2.83 3.02 3.38 3.42 3.50 3.80 3.98 3.78 3.55 3.32 3.08 2.71 2.59 2.45 2.27 2.02 1.91 2.02
0.01 0.01 0.01 0.01 0.01 0.02 0.04 0.06 0.12 0.12 0.19 0.31 0.39 0.77 0.94 1.05 1.19 1.18 1.13 1.29 1.35 1.42 1.78 1.97 2.00 2.16 2.31 2.37 2.58 2.82 3.20 3.55 3.62 3.65 3.53 3.41 3.30 2.83 2.66 2.50 2.31 2.08 1.94 1.90
0.01 0.01 0.01 0.02 0.02 0.02 0.06 0.05 0.05 0.08 0.16 0.41 0.48 0.99 1.19 1.38 1.44 1.26 1.21 1.20 1.20 1.41 1.71 1.67 1.52 1.67 1.82 1.74 1.97 2.29 2.65 2.93 3.07 3.17 3.16 3.17 3.04 2.81 2.73 2.55 2.20 1.96 1.82 1.82
0.02 0.02 0.02 0.04 0.03 0.03 0.04 0.04 0.06 0.09 0.16 0.37 0.43 0.77 1.22 1.54 1.63 1.28 1.17 1.11 1.18 1.37 1.40 1.38 1.41 1.49 1.56 1.62 1.85 2.10 2.28 2.54 2.69 2.74 2.72 2.70 2.58 2.47 2.41 2.25 1.99 1.81 1.68 1.62
0.02 0.04 0.04 0.03 0.03 0.04 0.04 0.07 0.12 0.17 0.33 0.67 0.57 0.68 1.17 1.47 1.29 1.11 1.07 0.92 1.00 1.20 1.29 1.34 1.39 1.40 1.48 1.72 1.97 2.18 2.32 2.48 2.53 2.34 2.16 2.14 2.14 2.14 2.05 1.90 1.73 1.55 1.45 1.38
0.13 0.10 0.07 0.05 0.06 0.06 0.08 0.16 0.53 0.87 1.18 1.07 0.68 0.78 1.36 1.22 0.86 0.77 0.85 0.84 0.85 0.93 1.08 1.18 1.32 1.47 1.56 1.62 1.60 1.85 2.12 2.30 2.27 2.05 1.85 1.78 1.78 1.81 1.77 1.66 1.55 1.47 1.35 1.26
0.28 0.25 0.13 0.09 0.12 0.13 0.13 0.24 0.65 0.86 0.91 0.90 0.72 1.12 1.51 1.12 0.76 0.61 0.68 0.70 0.62 0.58 0.56 0.64 0.76 0.81 0.87 0.88 0.84 0.92 1.06 1.21 1.28 1.23 1.22 1.22 1.25 1.31 1.35 1.43 1.37 1.35 1.30 1.18
0.16 0.15 0.10 0.12 0.17 0.18 0.24 0.28 0.28 0.46 0.62 0.90 0.90 1.10 1.09 0.83 0.67 0.60 0.66 0.65 0.53 0.48 0.43 0.46 0.51 0.47 0.53 0.53 0.55 0.66 0.74 0.81 0.84 0.82 0.80 0.81 0.87 0.96 1.02 1.06 1.09 1.12 1.12 1.06
0.10 0.10 0.10 0.10 0.15 0.18 0.20 0.27 0.42 0.64 0.83 0.89 0.93 1.22 1.31 1.14 0.94 0.75 0.72 0.67 0.51 0.41 0.36 0.37 0.43 0.41 0.49 0.57 0.65 0.74 0.73 0.70 0.65 0.63 0.63 0.61 0.66 0.70 0.75 0.78 0.80 0.80 0.82 0.85
0.08 0.07 0.11 0.18 0.21 0.21 0.22 0.29 0.44 0.60 0.64 0.78 1.02 1.10 0.82 0.77 0.83 0.89 0.92 0.78 0.53 0.39 0.34 0.34 0.39 0.40 0.45 0.53 0.60 0.65 0.66 0.64 0.62 0.58 0.59 0.58 0.57 0.55 0.57 0.63 0.64 0.66 0.68 0.70
0.08 0.09 0.14 0.23 0.20 0.15 0.21 0.30 0.45 0.68 0.73 0.73 0.80 0.85 0.47 0.47 0.56 0.64 0.65 0.55 0.38 0.30 0.28 0.27 0.28 0.29 0.36 0.42 0.49 0.51 0.52 0.57 0.57 0.53 0.55 0.56 0.52 0.48 0.49 0.50 0.51 0.54 0.57 0.60
0.11 0.12 0.22 0.46 0.45 0.24 0.24 0.24 0.33 0.46 0.55 0.60 0.74 0.83 0.49 0.45 0.53 0.53 0.51 0.45 0.34 0.29 0.28 0.27 0.26 0.26 0.29 0.38 0.45 0.48 0.50 0.54 0.56 0.54 0.55 0.51 0.52 0.52 0.48 0.42 0.40 0.40 0.44 0.51
0.10 0.11 0.20 0.52 0.56 0.36 0.28 0.25 0.28 0.37 0.49 0.45 0.43 0.57 0.54 0.50 0.58 0.52 0.45 0.38 0.30 0.25 0.25 0.24 0.26 0.27 0.28 0.30 0.33 0.38 0.47 0.57 0.53 0.50 0.49 0.46 0.44 0.44 0.45 0.42 0.38 0.37 0.38 0.43
0.10 0.12 0.14 0.22 0.27 0.31 0.32 0.26 0.23 0.26 0.29 0.37 0.37 0.51 0.58 0.56 0.54 0.44 0.37 0.33 0.27 0.23 0.20 0.19 0.19 0.19 0.21 0.24 0.28 0.33 0.34 0.42 0.48 0.51 0.48 0.45 0.44 0.41 0.38 0.35 0.32 0.31 0.31 0.31
0.15 0.17 0.15 0.23 0.30 0.33 0.35 0.31 0.24 0.22 0.22 0.27 0.31 0.41 0.39 0.40 0.39 0.35 0.32 0.29 0.28 0.21 0.17 0.14 0.13 0.12 0.14 0.16 0.20 0.24 0.26 0.30 0.37 0.40 0.39 0.42 0.42 0.40 0.40 0.33 0.29 0.28 0.28 0.31
0.23 0.25 0.22 0.25 0.37 0.42 0.46 0.30 0.25 0.25 0.23 0.32 0.47 0.47 0.37 0.40 0.33 0.26 0.24 0.21 0.18 0.14 0.11 0.09 0.08 0.08 0.08 0.08 0.11 0.18 0.23 0.26 0.29 0.32 0.34 0.36 0.40 0.42 0.40 0.31 0.28 0.27 0.29 0.32
0.23 0.35 0.38 0.34 0.47 0.60 0.50 0.28 0.22 0.22 0.20 0.20 0.27 0.27 0.26 0.32 0.30 0.21 0.15 0.13 0.11 0.10 0.08 0.06 0.05 0.05 0.05 0.06 0.10 0.18 0.26 0.28 0.30 0.35 0.39 0.41 0.41 0.44 0.43 0.37 0.35 0.35 0.36 0.37
0.19 0.30 0.36 0.40 0.49 0.54 0.39 0.32 0.28 0.30 0.31 0.19 0.20 0.20 0.18 0.18 0.18 0.17 0.11 0.08 0.06 0.06 0.06 0.06 0.05 0.04 0.06 0.08 0.14 0.20 0.24 0.29 0.35 0.40 0.44 0.45 0.46 0.47 0.47 0.46 0.47 0.50 0.51 0.45
0.25 0.31 0.40 0.40 0.48 0.61 0.47 0.36 0.30 0.31 0.49 0.31 0.23 0.19 0.19 0.18 0.24 0.22 0.11 0.07 0.05 0.04 0.04 0.06 0.06 0.07 0.09 0.12 0.18 0.27 0.30 0.36 0.40 0.40 0.42 0.42 0.48 0.53 0.55 0.57 0.61 0.63 0.66 0.59
0.49 0.50 0.49 0.44 0.45 0.45 0.43 0.35 0.29 0.47 0.57 0.31 0.26 0.23 0.21 0.19 0.23 0.17 0.10 0.07 0.06 0.05 0.05 0.06 0.07 0.12 0.18 0.19 0.26 0.33 0.36 0.40 0.43 0.49 0.50 0.50 0.53 0.59 0.61 0.70 0.77 0.80 0.79 0.77
0.62 0.66 0.63 0.57 0.63 0.63 0.49 0.41 0.46 0.51 0.42 0.34 0.25 0.21 0.16 0.16 0.13 0.11 0.09 0.09 0.09 0.07 0.08 0.08 0.10 0.17 0.25 0.29 0.39 0.46 0.47 0.49 0.57 0.62 0.61 0.62 0.71 0.63 0.59 0.77 0.86 0.92 0.96 0.90
0.53 0.59 0.65 0.66 0.62 0.50 0.48 0.46 0.47 0.49 0.49 0.44 0.31 0.26 0.21 0.20 0.16 0.12 0.11 0.10 0.11 0.11 0.10 0.13 0.19 0.25 0.29 0.37 0.53 0.68 0.72 0.72 0.74 0.79 0.83 0.84 0.84 0.85 0.84 0.91 0.95 0.96 0.98 0.95
0.49 0.46 0.58 0.68 0.65 0.59 0.57 0.52 0.46 0.44 0.49 0.45 0.33 0.30 0.28 0.23 0.19 0.17 0.17 0.14 0.13 0.12 0.12 0.15 0.19 0.26 0.34 0.43 0.60 0.76 0.82 0.80 0.81 0.85 0.89 0.97 1.03 0.99 1.00 1.08 1.08 1.05 1.04 1.03
0.48 0.47 0.61 0.75 0.77 0.75 0.74 0.62 0.53 0.44 0.38 0.34 0.28 0.28 0.26 0.23 0.21 0.19 0.19 0.19 0.17 0.13 0.12 0.15 0.22 0.31 0.37 0.43 0.53 0.65 0.76 0.84 0.94 0.99 1.00 1.07 1.15 1.22 1.23 1.18 1.14 1.10 1.11 1.05
0.52 0.51 0.55 0.65 0.64 0.63 0.60 0.54 0.44 0.39 0.40 0.35 0.30 0.31 0.28 0.25 0.27 0.21 0.18 0.18 0.17 0.16 0.16 0.20 0.26 0.33 0.39 0.44 0.54 0.65 0.78 0.92 1.10 1.14 1.14 1.16 1.15 1.20 1.21 1.19 1.06 0.93 0.88 0.80

GEFSCGP_prec_meanprecacc_156.txt.gz
Total_Precipitation_Accumulation
0.00 0.00 0.00 0.00 0.01 0.01 0.01 0.04 0.10 0.13 0.12 0.18 0.29 0.48 0.63 0.62 0.77 1.16 1.38 1.34 1.32 1.57 2.04 2.39 2.60 2.73 2.98 3.07 3.18 3.09 3.19 3.55 3.84 3.68 3.33 3.09 2.77 2.51 2.29 2.12 2.02 2.03 2.05 2.22
0.00 0.01 0.00 0.01 0.01 0.01 0.02 0.06 0.13 0.15 0.13 0.21 0.36 0.58 0.74 0.82 1.07 1.23 1.15 1.15 1.32 1.60 2.04 2.37 2.59 2.69 2.89 3.12 3.52 3.56 3.60 3.89 4.07 3.86 3.61 3.38 3.14 2.78 2.64 2.49 2.31 2.06 1.97 2.07
0.01 0.01 0.01 0.01 0.01 0.02 0.04 0.06 0.12 0.12 0.19 0.31 0.39 0.78 0.94 1.05 1.19 1.18 1.14 1.29 1.36 1.43 1.80 2.00 2.04 2.23 2.37 2.45 2.68 2.92 3.28 3.63 3.70 3.74 3.61 3.49 3.36 2.88 2.70 2.54 2.35 2.12 1.98 1.94
0.01 0.01 0.01 0.02 0.02 0.02 0.06 0.05 0.05 0.08 0.16 0.41 0.49 0.99 1.19 1.38 1.44 1.26 1.21 1.20 1.21 1.42 1.72 1.70 1.57 1.72 1.88 1.81 2.04 2.38 2.73 3.00 3.13 3.24 3.24 3.25 3.12 2.86 2.77 2.60 2.24 2.00 1.86 1.85
0.02 0.02 0.02 0.04 0.03 0.03 0.04 0.04 0.06 0.09 0.16 0.37 0.43 0.77 1.22 1.54 1.63 1.28 1.17 1.12 1.18 1.37 1.41 1.40 1.44 1.53 1.61 1.69 1.93 2.18 2.38 2.61 2.75 2.81 2.80 2.79 2.67 2.53 2.45 2.30 2.03 1.85 1.72 1.66
0.02 0.04 0.04 0.03 0.03 0.04 0.04 0.07 0.12 0.17 0.33 0.67 0.58 0.68 1.17 1.47 1.29 1.11 1.07 0.92 1.00 1.21 1.29 1.36 1.43 1.45 1.54 1.78 2.04 2.26 2.42 2.56 2.59 2.40 2.24 2.23 2.22 2.19 2.10 1.94 1.76 1.59 1.49 1.42
0.13 0.10 0.07 0.05 0.06 0.06 0.08 0.16 0.53 0.87 1.18 1.08 0.68 0.78 1.36 1.22 0.86 0.77 0.85 0.84 0.85 0.93 1.09 1.19 1.34 1.50 1.60 1.66 1.65 1.91 2.21 2.38 2.33 2.12 1.93 1.86 1.86 1.86 1.82 1.70 1.60 1.51 1.37 1.28
0.28 0.25 0.13 0.09 0.12 0.13 0.13 0.24 0.65 0.87 0.92 0.90 0.72 1.12 1.51 1.12 0.76 0.61 0.68 0.70 0.62 0.59 0.56 0.65 0.78 0.83 0.90 0.91 0.89 0.98 1.14 1.30 1.35 1.29 1.28 1.29 1.32 1.36 1.40 1.47 1.40 1.37 1.32 1.20
0.16 0.15 0.10 0.12 0.17 0.18 0.24 0.28 0.28 0.46 0.62 0.91 0.90 1.10 1.09 0.83 0.67 0.60 0.66 0.65 0.53 0.48 0.43 0.47 0.53 0.50 0.57 0.58 0.61 0.72 0.81 0.89 0.91 0.88 0.86 0.86 0.93 1.01 1.07 1.10 1.11 1.13 1.14 1.08
0.10 0.10 0.10 0.10 0.15 0.18 0.20 0.27 0.42 0.64 0.83 0.89 0.94 1.22 1.31 1.14 0.94 0.75 0.72 0.67 0.51 0.41 0.36 0.37 0.44 0.44 0.52 0.62 0.73 0.82 0.81 0.78 0.71 0.69 0.69 0.64 0.71 0.77 0.81 0.81 0.81 0.82 0.83 0.87
0.08 0.08 0.11 0.18 0.21 0.21 0.22 0.29 0.44 0.60 0.65 0.78 1.02 1.10 0.82 0.77 0.83 0.89 0.92 0.78 0.53 0.39 0.34 0.35 0.40 0.43 0.48 0.57 0.66 0.72 0.75 0.75 0.69 0.64 0.65 0.63 0.63 0.61 0.64 0.68 0.66 0.68 0.69 0.71
0.08 0.09 0.15 0.24 0.20 0.15 0.21 0.30 0.46 0.68 0.73 0.73 0.80 0.85 0.47 0.47 0.56 0.64 0.65 0.55 0.38 0.30 0.28 0.29 0.30 0.31 0.38 0.46 0.53 0.56 0.58 0.66 0.65 0.59 0.60 0.61 0.58 0.53 0.54 0.55 0.54 0.56 0.59 0.62
0.11 0.13 0.23 0.47 0.45 0.24 0.24 0.24 0.33 0.46 0.55 0.61 0.75 0.83 0.49 0.45 0.53 0.53 0.51 0.45 0.34 0.30 0.29 0.29 0.29 0.29 0.32 0.41 0.48 0.51 0.54 0.60 0.62 0.59 0.61 0.57 0.56 0.55 0.51 0.46 0.43 0.42 0.46 0.52
0.10 0.12 0.21 0.52 0.56 0.36 0.28 0.26 0.28 0.37 0.49 0.45 0.43 0.57 0.54 0.50 0.58 0.52 0.45 0.38 0.30 0.25 0.25 0.25 0.27 0.30 0.31 0.33 0.36 0.40 0.51 0.61 0.58 0.55 0.55 0.51 0.48 0.47 0.48 0.45 0.41 0.39 0.39 0.44
0.10 0.13 0.14 0.22 0.27 0.31 0.32 0.26 0.23 0.26 0.29 0.37 0.37 0.51 0.58 0.56 0.54 0.44 0.38 0.33 0.27 0.23 0.21 0.19 0.20 0.19 0.22 0.25 0.29 0.34 0.36 0.44 0.51 0.54 0.51 0.48 0.47 0.44 0.41 0.38 0.35 0.34 0.33 0.33
0.15 0.17 0.16 0.23 0.30 0.33 0.35 0.31 0.24 0.22 0.22 0.27 0.31 0.41 0.39 0.40 0.40 0.36 0.32 0.29 0.29 0.22 0.17 0.14 0.13 0.13 0.14 0.17 0.20 0.25 0.27 0.32 0.38 0.42 0.41 0.44 0.45 0.43 0.43 0.36 0.32 0.31 0.31 0.34
0.23 0.26 0.23 0.26 0.38 0.43 0.46 0.30 0.26 0.26 0.23 0.33 0.48 0.48 0.37 0.41 0.33 0.27 0.24 0.21 0.19 0.15 0.12 0.10 0.08 0.08 0.09 0.09 0.12 0.19 0.24 0.27 0.30 0.34 0.36 0.39 0.42 0.44 0.43 0.34 0.30 0.30 0.31 0.34
0.23 0.36 0.40 0.36 0.50 0.63 0.51 0.28 0.22 0.23 0.21 0.21 0.27 0.28 0.27 0.33 0.31 0.22 0.16 0.13 0.12 0.11 0.08 0.06 0.06 0.05 0.05 0.07 0.11 0.19 0.26 0.29 0.31 0.36 0.40 0.42 0.43 0.45 0.45 0.39 0.36 0.37 0.38 0.39
0.20 0.33 0.39 0.43 0.52 0.55 0.40 0.33 0.29 0.31 0.33 0.20 0.21 0.21 0.19 0.19 0.20 0.18 0.12 0.09 0.08 0.08 0.07 0.06 0.05 0.05 0.06 0.09 0.14 0.20 0.24 0.30 0.36 0.41 0.45 0.46 0.47 0.48 0.48 0.48 0.49 0.51 0.53 0.46
0.27 0.34 0.44 0.43 0.51 0.64 0.49 0.37 0.32 0.34 0.54 0.34 0.24 0.20 0.20 0.20 0.26 0.24 0.13 0.08 0.06 0.05 0.05 0.06 0.06 0.08 0.10 0.13 0.19 0.27 0.30 0.36 0.41 0.41 0.43 0.43 0.49 0.55 0.57 0.60 0.65 0.66 0.68 0.61
0.53 0.56 0.54 0.49 0.50 0.49 0.45 0.36 0.32 0.53 0.63 0.33 0.28 0.25 0.23 0.21 0.25 0.20 0.12 0.09 0.07 0.06 0.06 0.07 0.09 0.14 0.19 0.19 0.27 0.34 0.36 0.41 0.44 0.51 0.52 0.53 0.55 0.62 0.65 0.74 0.82 0.84 0.82 0.81
0.67 0.72 0.69 0.65 0.70 0.68 0.53 0.46 0.52 0.58 0.45 0.36 0.27 0.24 0.19 0.19 0.16 0.15 0.12 0.11 0.11 0.09 0.10 0.10 0.12 0.20 0.27 0.30 0.40 0.47 0.48 0.50 0.59 0.66 0.67 0.68 0.75 0.66 0.63 0.81 0.90 0.96 0.99 0.94
0.57 0.63 0.69 0.73 0.70 0.56 0.55 0.55 0.53 0.53 0.52 0.46 0.33 0.28 0.22 0.23 0.18 0.15 0.13 0.12 0.12 0.12 0.12 0.15 0.20 0.27 0.30 0.38 0.54 0.69 0.73 0.73 0.75 0.81 0.86 0.90 0.91 0.91 0.91 0.98 1.02 1.03 1.04 1.01
0.53 0.49 0.62 0.74 0.72 0.67 0.68 0.61 0.54 0.50 0.54 0.49 0.36 0.33 0.30 0.26 0.21 0.20 0.19 0.16 0.14 0.13 0.13 0.16 0.20 0.26 0.35 0.45 0.62 0.77 0.83 0.81 0.82 0.87 0.91 1.00 1.07 1.06 1.09 1.19 1.18 1.14 1.12 1.11
0.53 0.51 0.65 0.81 0.85 0.84 0.85 0.71 0.60 0.52 0.44 0.38 0.32 0.32 0.29 0.26 0.24 0.21 0.21 0.21 0.19 0.15 0.13 0.16 0.23 0.32 0.38 0.44 0.55 0.66 0.77 0.86 0.95 1.02 1.04 1.12 1.21 1.29 1.31 1.26 1.24 1.19 1.19 1.12
0.55 0.54 0.59 0.71 0.71 0.71 0.67 0.60 0.48 0.45 0.44 0.39 0.34 0.35 0.30 0.28 0.30 0.25 0.21 0.20 0.18 0.17 0.18 0.22 0.27 0.35 0.41 0.46 0.56 0.66 0.79 0.94 1.12 1.17 1.18 1.20 1.21 1.27 1.29 1.26 1.13 1.01 0.95 0.87

GEFSCGP_prec_meanprecacc_162.txt.gz
Total_Precipitation_Accumulation
0.00 0.00 0.00 0.00 0.01 0.01 0.01 0.04 0.11 0.14 0.12 0.18 0.29 0.49 0.63 0.62 0.77 1.16 1.38 1.34 1.33 1.59 2.06 2.42 2.64 2.79 3.07 3.20 3.32 3.24 3.32 3.67 3.95 3.77 3.40 3.17 2.85 2.60 2.38 2.19 2.08 2.08 2.09 2.26
0.00 0.01 0.00 0.01 0.01 0.01 0.02 0.06 0.13 0.15 0.13 0.21 0.36 0.58 0.74 0.82 1.07 1.23 1.15 1.15 1.32 1.61 2.06 2.41 2.63 2.75 2.97 3.22 3.63 3.67 3.72 4.01 4.17 3.94 3.69 3.46 3.24 2.87 2.73 2.57 2.39 2.11 2.00 2.11
0.01 0.01 0.01 0.01 0.01 0.02 0.04 0.06 0.12 0.12 0.19 0.31 0.39 0.78 0.94 1.06 1.20 1.18 1.14 1.29 1.36 1.44 1.81 2.03 2.07 2.26 2.43 2.53 2.78 3.01 3.36 3.74 3.81 3.83 3.70 3.57 3.45 2.98 2.79 2.62 2.41 2.17 2.01 1.97
0.01 0.01 0.01 0.02 0.02 0.02 0.06 0.05 0.05 0.08 0.16 0.41 0.49 0.99 1.20 1.39 1.45 1.26 1.21 1.20 1.21 1.42 1.73 1.72 1.59 1.75 1.93 1.87 2.12 2.46 2.81 3.07 3.21 3.32 3.32 3.32 3.18 2.94 2.86 2.68 2.31 2.05 1.89 1.87
0.02 0.02 0.02 0.04 0.03 0.03 0.04 0.04 0.06 0.09 0.16 0.37 0.44 0.77 1.23 1.56 1.65 1.29 1.18 1.12 1.18 1.37 1.41 1.41 1.45 1.55 1.65 1.74 1.99 2.26 2.46 2.68 2.81 2.87 2.88 2.88 2.76 2.63 2.55 2.39 2.11 1.91 1.76 1.68
0.02 0.04 0.04 0.03 0.03 0.04 0.04 0.07 0.12 0.17 0.34 0.68 0.58 0.68 1.17 1.47 1.29 1.12 1.07 0.92 1.00 1.21 1.30 1.37 1.44 1.48 1.57 1.82 2.11 2.34 2.49 2.63 2.66 2.46 2.32 2.32 2.32 2.28 2.18 2.02 1.83 1.64 1.52 1.44
0.13 0.10 0.07 0.05 0.06 0.06 0.08 0.16 0.54 0.89 1.21 1.10 0.70 0.79 1.36 1.22 0.87 0.78 0.86 0.84 0.85 0.93 1.09 1.20 1.36 1.52 1.63 1.70 1.72 1.98 2.28 2.45 2.39 2.19 2.02 1.95 1.98 1.97 1.90 1.76 1.65 1.56 1.39 1.29
0.28 0.25 0.13 0.09 0.12 0.13 0.13 0.24 0.68 0.92 0.96 0.94 0.74 1.13 1.51 1.12 0.77 0.62 0.69 0.70 0.62 0.59 0.56 0.65 0.78 0.85 0.93 0.94 0.93 1.04 1.21 1.37 1.42 1.36 1.37 1.39 1.43 1.46 1.47 1.54 1.45 1.41 1.34 1.21
0.16 0.15 0.10 0.12 0.17 0.18 0.24 0.28 0.28 0.48 0.65 0.95 0.93 1.12 1.10 0.84 0.67 0.61 0.67 0.65 0.53 0.48 0.43 0.47 0.53 0.52 0.60 0.61 0.65 0.77 0.88 0.97 0.99 0.96 0.94 0.95 1.01 1.11 1.16 1.18 1.16 1.17 1.16 1.10
0.10 0.10 0.10 0.10 0.15 0.18 0.20 0.28 0.42 0.65 0.86 0.92 0.96 1.25 1.36 1.15 0.94 0.75 0.72 0.67 0.51 0.41 0.36 0.37 0.44 0.45 0.55 0.66 0.77 0.89 0.91 0.88 0.82 0.80 0.77 0.71 0.79 0.85 0.90 0.89 0.87 0.86 0.86 0.89
0.08 0.08 0.12 0.18 0.21 0.21 0.22 0.30 0.45 0.61 0.67 0.81 1.06 1.14 0.84 0.78 0.83 0.90 0.92 0.78 0.53 0.40 0.34 0.35 0.41 0.44 0.50 0.60 0.70 0.78 0.82 0.85 0.79 0.73 0.74 0.73 0.70 0.68 0.70 0.74 0.72 0.74 0.74 0.74
0.08 0.10 0.16 0.24 0.21 0.15 0.21 0.31 0.47 0.69 0.74 0.76 0.84 0.89 0.49 0.47 0.56 0.65 0.66 0.55 0.38 0.31 0.29 0.29 0.31 0.32 0.39 0.48 0.56 0.59 0.63 0.74 0.73 0.67 0.68 0.71 0.67 0.61 0.61 0.60 0.58 0.61 0.63 0.64
0.14 0.15 0.25 0.51 0.47 0.25 0.24 0.24 0.34 0.48 0.57 0.63 0.78 0.87 0.51 0.46 0.55 0.55 0.52 0.45 0.34 0.30 0.29 0.30 0.30 0.30 0.33 0.43 0.51 0.55 0.59 0.67 0.70 0.68 0.70 0.67 0.66 0.63 0.58 0.51 0.48 0.47 0.50 0.55
0.11 0.13 0.22 0.56 0.61 0.40 0.30 0.26 0.29 0.38 0.51 0.47 0.45 0.60 0.56 0.52 0.62 0.55 0.46 0.39 0.30 0.25 0.26 0.26 0.28 0.30 0.32 0.35 0.39 0.45 0.56 0.67 0.65 0.62 0.64 0.60 0.56 0.55 0.54 0.52 0.47 0.44 0.44 0.48
0.11 0.13 0.15 0.24 0.31 0.35 0.35 0.28 0.24 0.26 0.30 0.40 0.39 0.53 0.61 0.58 0.58 0.48 0.38 0.33 0.27 0.24 0.22 0.22 0.22 0.21 0.24 0.28 0.32 0.38 0.41 0.49 0.57 0.60 0.59 0.58 0.55 0.52 0.49 0.45 0.41 0.38 0.37 0.35
0.16 0.18 0.17 0.25 0.32 0.34 0.37 0.34 0.26 0.23 0.23 0.28 0.33 0.44 0.43 0.44 0.42 0.38 0.33 0.30 0.29 0.22 0.18 0.17 0.15 0.15 0.17 0.19 0.23 0.29 0.32 0.36 0.43 0.47 0.47 0.52 0.53 0.51 0.51 0.43 0.38 0.35 0.35 0.37
0.24 0.28 0.26 0.30 0.39 0.45 0.48 0.31 0.27 0.28 0.25 0.35 0.53 0.52 0.42 0.46 0.36 0.28 0.27 0.22 0.19 0.15 0.12 0.12 0.10 0.10 0.12 0.13 0.16 0.23 0.28 0.31 0.35 0.38 0.42 0.44 0.48 0.51 0.50 0.42 0.36 0.34 0.35 0.38
0.25 0.39 0.43 0.40 0.54 0.67 0.53 0.28 0.23 0.25 0.22 0.23 0.32 0.34 0.31 0.37 0.32 0.23 0.19 0.17 0.14 0.13 0.11 0.10 0.10 0.09 0.09 0.11 0.15 0.23 0.30 0.32 0.35 0.42 0.44 0.45 0.46 0.50 0.50 0.45 0.40 0.41 0.42 0.43
0.21 0.36 0.43 0.48 0.60 0.62 0.45 0.35 0.30 0.33 0.35 0.21 0.24 0.27 0.24 0.22 0.22 0.21 0.14 0.13 0.11 0.11 0.10 0.08 0.07 0.09 0.14 0.15 0.18 0.24 0.29 0.34 0.40 0.46 0.48 0.49 0.49 0.51 0.51 0.51 0.51 0.54 0.56 0.50
0.29 0.40 0.51 0.49 0.60 0.75 0.55 0.40 0.33 0.36 0.59 0.37 0.26 0.23 0.22 0.22 0.34 0.31 0.15 0.10 0.09 0.08 0.09 0.09 0.08 0.11 0.16 0.21 0.28 0.34 0.36 0.42 0.46 0.47 0.48 0.48 0.54 0.60 0.61 0.64 0.70 0.71 0.73 0.66
0.60 0.63 0.64 0.59 0.60 0.59 0.53 0.40 0.34 0.61 0.73 0.38 0.31 0.28 0.26 0.26 0.32 0.27 0.15 0.11 0.09 0.08 0.09 0.09 0.12 0.21 0.26 0.25 0.34 0.41 0.44 0.48 0.51 0.58 0.60 0.60 0.63 0.70 0.74 0.84 0.92 0.95 0.90 0.88
0.76 0.80 0.78 0.75 0.83 0.82 0.60 0.55 0.62 0.67 0.49 0.39 0.31 0.28 0.24 0.24 0.21 0.19 0.15 0.13 0.12 0.10 0.12 0.13 0.17 0.28 0.36 0.38 0.47 0.53 0.56 0.59 0.66 0.74 0.74 0.74 0.81 0.73 0.70 0.89 0.97 1.05 1.08 1.02
0.64 0.72 0.79 0.83 0.82 0.69 0.62 0.66 0.64 0.58 0.55 0.49 0.38 0.32 0.27 0.27 0.22 0.18 0.16 0.15 0.14 0.15 0.15 0.18 0.24 0.34 0.41 0.48 0.61 0.75 0.79 0.81 0.83 0.89 0.94 0.96 0.96 0.98 0.99 1.07 1.10 1.10 1.12 1.08
0.61 0.56 0.73 0.85 0.85 0.76 0.74 0.66 0.59 0.55 0.57 0.52 0.39 0.37 0.34 0.30 0.25 0.23 0.23 0.20 0.18 0.18 0.18 0.20 0.26 0.33 0.44 0.56 0.73 0.86 0.89 0.87 0.89 0.94 0.98 1.07 1.14 1.12 1.15 1.27 1.26 1.21 1.20 1.20
0.61 0.60 0.78 0.94 0.98 0.95 0.93 0.77 0.65 0.58 0.48 0.42 0.37 0.37 0.34 0.31 0.29 0.25 0.24 0.24 0.22 0.20 0.20 0.22 0.29 0.39 0.46 0.52 0.64 0.75 0.86 0.93 1.04 1.12 1.15 1.22 1.29 1.36 1.38 1.32 1.29 1.25 1.27 1.21
0.63 0.62 0.70 0.83 0.81 0.81 0.78 0.70 0.55 0.52 0.50 0.43 0.41 0.41 0.34 0.33 0.36 0.31 0.25 0.23 0.22 0.22 0.23 0.27 0.32 0.40 0.47 0.51 0.61 0.72 0.86 1.01 1.19 1.25 1.26 1.28 1.30 1.37 1.39 1.37 1.25 1.12 1.05 0.96

GEFSCGP_prec_meanprecacc_168.txt.gz
Total_Precipitation_Accumulation
0.00 0.00 0.00 0.00 0.01 0.01 0.01 0.04 0.11 0.14 0.13 0.19 0.29 0.49 0.64 0.62 0.79 1.18 1.40 1.38 1.37 1.66 2.14 2.48 2.72 2.89 3.20 3.35 3.46 3.39 3.50 3.81 4.08 3.90 3.52 3.26 2.94 2.70 2.50 2.28 2.13 2.13 2.13 2.29
0.00 0.01 0.00 0.01 0.01 0.01 0.02 0.06 0.13 0.15 0.14 0.22 0.36 0.59 0.75 0.84 1.09 1.25 1.17 1.18 1.35 1.67 2.15 2.51 2.74 2.87 3.12 3.40 3.79 3.82 3.90 4.18 4.29 4.04 3.78 3.54 3.31 2.94 2.82 2.67 2.45 2.15 2.03 2.13
0.01 0.01 0.01 0.01 0.01 0.02 0.04 0.06 0.12 0.12 0.19 0.31 0.41 0.79 0.97 1.09 1.22 1.21 1.17 1.33 1.41 1.50 1.88 2.12 2.16 2.36 2.54 2.67 2.92 3.15 3.52 3.93 3.99 3.97 3.81 3.66 3.54 3.07 2.87 2.70 2.48 2.22 2.04 1.99
0.01 0.01 0.01 0.02 0.02 0.02 0.06 0.05 0.05 0.08 0.16 0.42 0.49 1.01 1.23 1.41 1.49 1.30 1.24 1.22 1.24 1.47 1.79 1.78 1.64 1.80 2.04 1.98 2.24 2.60 2.95 3.20 3.35 3.45 3.42 3.38 3.23 2.99 2.91 2.72 2.34 2.09 1.92 1.89
0.02 0.02 0.02 0.04 0.03 0.03 0.04 0.04 0.06 0.10 0.17 0.38 0.44 0.78 1.26 1.59 1.68 1.32 1.20 1.14 1.21 1.41 1.47 1.47 1.49 1.60 1.73 1.84 2.10 2.37 2.58 2.78 2.90 2.94 2.96 2.95 2.81 2.67 2.59 2.43 2.15 1.94 1.80 1.71
0.02 0.04 0.04 0.03 0.03 0.04 0.04 0.07 0.13 0.17 0.34 0.68 0.59 0.69 1.19 1.49 1.32 1.15 1.11 0.95 1.03 1.24 1.34 1.41 1.48 1.57 1.65 1.90 2.21 2.43 2.60 2.73 2.74 2.53 2.39 2.38 2.36 2.33 2.22 2.05 1.86 1.67 1.55 1.47
0.13 0.10 0.07 0.05 0.06 0.07 0.08 0.17 0.54 0.90 1.21 1.11 0.70 0.80 1.38 1.25 0.89 0.81 0.89 0.88 0.89 0.96 1.11 1.22 1.38 1.55 1.69 1.76 1.79 2.08 2.39 2.54 2.48 2.24 2.05 1.99 2.03 2.03 1.95 1.80 1.69 1.59 1.42 1.31
0.28 0.25 0.13 0.09 0.12 0.13 0.13 0.24 0.68 0.93 0.97 0.96 0.77 1.16 1.59 1.19 0.80 0.65 0.74 0.75 0.67 0.62 0.59 0.67 0.80 0.87 0.96 0.97 0.97 1.09 1.28 1.45 1.49 1.41 1.40 1.43 1.47 1.50 1.52 1.59 1.49 1.44 1.36 1.23
0.16 0.15 0.10 0.12 0.17 0.18 0.24 0.28 0.29 0.48 0.66 0.98 1.00 1.18 1.20 0.93 0.73 0.67 0.76 0.72 0.57 0.51 0.45 0.49 0.55 0.53 0.62 0.65 0.68 0.80 0.93 1.05 1.08 1.05 1.02 1.03 1.08 1.16 1.20 1.22 1.21 1.21 1.20 1.12
0.10 0.10 0.10 0.11 0.15 0.18 0.20 0.28 0.42 0.66 0.88 0.98 1.03 1.33 1.46 1.28 1.02 0.81 0.79 0.72 0.55 0.44 0.39 0.40 0.46 0.46 0.57 0.68 0.80 0.93 0.97 0.97 0.94 0.93 0.90 0.81 0.89 0.94 0.97 0.95 0.92 0.91 0.91 0.93
0.08 0.09 0.12 0.18 0.21 0.22 0.23 0.30 0.45 0.61 0.68 0.85 1.14 1.23 0.95 0.89 0.91 0.96 0.98 0.83 0.57 0.42 0.37 0.38 0.43 0.45 0.51 0.61 0.72 0.81 0.87 0.92 0.87 0.82 0.85 0.85 0.82 0.79 0.80 0.83 0.80 0.80 0.79 0.79
0.09 0.11 0.16 0.24 0.21 0.16 0.22 0.32 0.47 0.69 0.75 0.78 0.89 0.94 0.55 0.53 0.63 0.74 0.75 0.60 0.42 0.35 0.33 0.33 0.34 0.35 0.42 0.51 0.59 0.63 0.67 0.78 0.78 0.74 0.78 0.83 0.80 0.74 0.72 0.70 0.68 0.69 0.71 0.72
0.15 0.15 0.25 0.52 0.48 0.25 0.25 0.24 0.35 0.48 0.58 0.65 0.82 0.91 0.55 0.52 0.63 0.67 0.64 0.51 0.40 0.37 0.36 0.38 0.35 0.32 0.36 0.46 0.54 0.58 0.62 0.70 0.75 0.75 0.79 0.78 0.77 0.75 0.69 0.60 0.56 0.54 0.57 0.63
0.11 0.13 0.22 0.58 0.63 0.42 0.31 0.27 0.30 0.42 0.52 0.49 0.48 0.62 0.60 0.58 0.69 0.67 0.62 0.51 0.38 0.32 0.31 0.34 0.39 0.35 0.34 0.37 0.42 0.47 0.58 0.69 0.69 0.68 0.71 0.68 0.64 0.64 0.63 0.60 0.55 0.50 0.49 0.54
0.11 0.14 0.16 0.25 0.33 0.37 0.36 0.29 0.25 0.28 0.32 0.41 0.42 0.55 0.66 0.64 0.64 0.54 0.48 0.45 0.36 0.29 0.26 0.26 0.27 0.28 0.30 0.32 0.35 0.41 0.43 0.52 0.60 0.65 0.65 0.63 0.62 0.60 0.58 0.54 0.49 0.45 0.43 0.41
0.17 0.21 0.21 0.28 0.34 0.36 0.38 0.34 0.27 0.23 0.24 0.29 0.34 0.46 0.48 0.52 0.48 0.44 0.40 0.36 0.33 0.26 0.21 0.19 0.19 0.18 0.20 0.24 0.27 0.33 0.35 0.39 0.47 0.52 0.53 0.58 0.60 0.58 0.57 0.51 0.45 0.42 0.42 0.44
0.25 0.30 0.30 0.34 0.42 0.47 0.49 0.32 0.29 0.29 0.26 0.36 0.54 0.55 0.46 0.58 0.46 0.36 0.34 0.28 0.22 0.18 0.15 0.15 0.13 0.13 0.16 0.20 0.25 0.30 0.34 0.38 0.42 0.45 0.47 0.48 0.53 0.57 0.55 0.48 0.44 0.42 0.42 0.45
0.28 0.42 0.47 0.44 0.57 0.71 0.55 0.30 0.25 0.29 0.26 0.26 0.35 0.36 0.36 0.52 0.44 0.32 0.24 0.21 0.18 0.15 0.13 0.12 0.12 0.13 0.17 0.21 0.25 0.32 0.36 0.39 0.42 0.48 0.50 0.50 0.50 0.55 0.57 0.53 0.49 0.48 0.49 0.50
0.24 0.39 0.46 0.52 0.65 0.65 0.49 0.39 0.34 0.39 0.41 0.24 0.27 0.30 0.30 0.34 0.36 0.34 0.20 0.18 0.16 0.14 0.14 0.12 0.11 0.14 0.21 0.23 0.25 0.31 0.34 0.38 0.46 0.51 0.54 0.53 0.54 0.56 0.57 0.57 0.60 0.61 0.63 0.58
0.34 0.43 0.54 0.52 0.63 0.78 0.61 0.47 0.38 0.42 0.70 0.43 0.30 0.28 0.31 0.34 0.49 0.46 0.24 0.16 0.13 0.12 0.13 0.14 0.15 0.18 0.24 0.28 0.35 0.42 0.43 0.47 0.52 0.53 0.53 0.54 0.60 0.65 0.66 0.69 0.78 0.80 0.81 0.75
0.68 0.69 0.68 0.64 0.65 0.63 0.58 0.46 0.40 0.70 0.85 0.46 0.37 0.33 0.34 0.35 0.41 0.37 0.26 0.18 0.15 0.13 0.14 0.15 0.21 0.31 0.35 0.34 0.43 0.52 0.57 0.60 0.59 0.65 0.67 0.68 0.71 0.79 0.83 0.91 0.99 1.02 0.98 0.97
0.86 0.88 0.85 0.82 0.91 0.89 0.67 0.64 0.71 0.77 0.67 0.53 0.41 0.36 0.31 0.30 0.27 0.26 0.24 0.23 0.21 0.19 0.19 0.18 0.22 0.35 0.45 0.50 0.60 0.69 0.69 0.72 0.77 0.83 0.83 0.84 0.91 0.83 0.81 1.00 1.07 1.14 1.18 1.12
0.77 0.82 0.87 0.91 0.92 0.78 0.72 0.77 0.75 0.68 0.74 0.69 0.51 0.44 0.35 0.32 0.28 0.23 0.22 0.22 0.22 0.22 0.22 0.23 0.29 0.41 0.53 0.65 0.76 0.91 0.95 0.93 0.94 0.97 1.01 1.03 1.05 1.08 1.09 1.16 1.19 1.19 1.21 1.17
0.78 0.71 0.85 0.98 0.99 0.89 0.87 0.81 0.72 0.67 0.72 0.68 0.52 0.46 0.40 0.36 0.30 0.28 0.27 0.25 0.24 0.25 0.24 0.25 0.31 0.39 0.55 0.74 0.91 1.02 1.05 1.00 0.99 1.04 1.07 1.16 1.26 1.23 1.25 1.35 1.34 1.29 1.28 1.29
0.81 0.81 0.99 1.14 1.13 1.08 1.09 0.94 0.75 0.67 0.60 0.55 0.46 0.42 0.39 0.37 0.34 0.30 0.29 0.28 0.25 0.25 0.24 0.27 0.34 0.45 0.53 0.62 0.79 0.96 1.05 1.10 1.18 1.25 1.27 1.31 1.39 1.47 1.48 1.41 1.39 1.36 1.37 1.31
0.79 0.83 0.95 1.07 1.00 0.97 0.93 0.82 0.64 0.63 0.66 0.58 0.55 0.52 0.41 0.39 0.42 0.36 0.31 0.27 0.24 0.24 0.27 0.33 0.39 0.46 0.53 0.59 0.72 0.88 1.05 1.18 1.34 1.37 1.37 1.39 1.39 1.47 1.48 1.46 1.35 1.24 1.17 1.07

GEFSCGP_prec_meanprecacc_174.txt.gz
Total_Precipitation_Accumulation
0.00 0.00 0.00 0.00 0.01 0.01 0.01 0.04 0.11 0.14 0.13 0.19 0.29 0.49 0.64 0.63 0.80 1.19 1.41 1.39 1.38 1.69 2.19 2.55 2.79 2.96 3.27 3.43 3.55 3.45 3.57 3.90 4.17 4.01 3.66 3.40 3.05 2.79 2.59 2.38 2.22 2.20 2.19 2.32
0.00 0.01 0.00 0.01 0.01 0.01 0.02 0.06 0.13 0.15 0.14 0.22 0.37 0.59 0.75 0.85 1.10 1.26 1.18 1.19 1.37 1.68 2.19 2.57 2.82 2.94 3.18 3.48 3.89 3.92 4.00 4.30 4.39 4.15 3.93 3.72 3.49 3.09 2.95 2.80 2.55 2.22 2.08 2.16
0.01 0.01 0.01 0.01 0.01 0.02 0.04 0.06 0.12 0.12 0.19 0.32 0.41 0.80 0.97 1.09 1.23 1.22 1.18 1.35 1.42 1.52 1.90 2.18 2.26 2.44 2.62 2.79 3.03 3.26 3.65 4.08 4.14 4.13 4.01 3.91 3.80 3.27 3.04 2.83 2.58 2.29 2.09 2.03
0.01 0.01 0.01 0.02 0.02 0.02 0.06 0.05 0.05 0.08 0.17 0.43 0.50 1.02 1.23 1.42 1.49 1.31 1.26 1.24 1.26 1.49 1.81 1.83 1.71 1.86 2.11 2.10 2.37 2.72 3.09 3.37 3.54 3.63 3.58 3.54 3.38 3.10 3.00 2.82 2.44 2.17 1.97 1.93
0.02 0.02 0.02 0.04 0.03 0.03 0.05 0.04 0.06 0.10 0.18 0.38 0.44 0.78 1.27 1.59 1.69 1.33 1.22 1.15 1.24 1.45 1.51 1.52 1.55 1.65 1.79 1.94 2.23 2.48 2.72 2.95 3.10 3.13 3.11 3.07 2.92 2.75 2.67 2.53 2.25 2.01 1.85 1.76
0.02 0.04 0.04 0.03 0.03 0.04 0.04 0.07 0.13 0.19 0.35 0.68 0.59 0.69 1.19 1.49 1.32 1.15 1.12 0.96 1.05 1.27 1.37 1.44 1.51 1.62 1.72 2.00 2.31 2.54 2.73 2.89 2.94 2.70 2.54 2.48 2.44 2.39 2.27 2.10 1.93 1.73 1.61 1.53
0.13 0.10 0.07 0.05 0.06 0.07 0.08 0.17 0.55 0.90 1.22 1.12 0.70 0.80 1.38 1.25 0.89 0.81 0.90 0.89 0.90 0.98 1.13 1.24 1.40 1.60 1.76 1.84 1.87 2.16 2.48 2.65 2.62 2.39 2.19 2.07 2.10 2.07 1.99 1.84 1.73 1.63 1.46 1.35
0.28 0.25 0.13 0.09 0.12 0.13 0.13 0.24 0.69 0.93 0.97 0.96 0.77 1.16 1.59 1.19 0.80 0.66 0.75 0.76 0.68 0.64 0.61 0.69 0.85 0.93 1.02 1.03 1.04 1.16 1.35 1.52 1.59 1.52 1.51 1.51 1.54 1.55 1.56 1.62 1.52 1.47 1.38 1.25
0.16 0.15 0.10 0.12 0.17 0.18 0.24 0.28 0.29 0.49 0.66 0.98 1.00 1.18 1.20 0.93 0.73 0.68 0.77 0.73 0.59 0.53 0.47 0.52 0.60 0.59 0.67 0.69 0.73 0.84 0.99 1.11 1.15 1.15 1.13 1.13 1.15 1.21 1.24 1.26 1.24 1.23 1.22 1.15
0.10 0.10 0.10 0.11 0.15 0.18 0.20 0.28 0.42 0.66 0.88 0.98 1.03 1.33 1.46 1.28 1.03 0.82 0.79 0.73 0.56 0.46 0.41 0.43 0.50 0.49 0.59 0.71 0.84 0.96 1.02 1.03 1.00 1.00 0.99 0.90 0.97 1.00 1.03 1.00 0.96 0.94 0.93 0.95
0.08 0.09 0.12 0.18 0.22 0.22 0.23 0.30 0.45 0.61 0.68 0.85 1.14 1.23 0.95 0.89 0.91 0.96 0.99 0.84 0.58 0.44 0.39 0.40 0.45 0.47 0.53 0.64 0.74 0.84 0.92 0.99 0.94 0.88 0.91 0.91 0.89 0.87 0.88 0.89 0.84 0.84 0.83 0.82
0.09 0.11 0.16 0.24 0.21 0.16 0.22 0.32 0.47 0.70 0.75 0.78 0.89 0.94 0.55 0.53 0.64 0.76 0.77 0.62 0.44 0.37 0.35 0.36 0.37 0.36 0.44 0.54 0.62 0.66 0.71 0.83 0.83 0.81 0.84 0.89 0.88 0.83 0.80 0.76 0.74 0.76 0.77 0.78
0.15 0.15 0.26 0.52 0.48 0.26 0.25 0.24 0.35 0.49 0.58 0.65 0.82 0.91 0.55 0.52 0.64 0.69 0.67 0.53 0.42 0.39 0.38 0.41 0.38 0.33 0.37 0.47 0.56 0.60 0.65 0.74 0.80 0.81 0.85 0.84 0.85 0.83 0.76 0.66 0.65 0.64 0.66 0.71
0.12 0.13 0.23 0.58 0.63 0.42 0.31 0.27 0.30 0.42 0.52 0.49 0.48 0.62 0.60 0.58 0.70 0.69 0.64 0.52 0.40 0.34 0.35 0.39 0.43 0.37 0.36 0.38 0.43 0.49 0.60 0.72 0.73 0.74 0.76 0.72 0.70 0.70 0.71 0.69 0.63 0.59 0.58 0.62
0.12 0.15 0.16 0.25 0.33 0.37 0.36 0.29 0.26 0.29 0.32 0.41 0.42 0.55 0.66 0.64 0.64 0.56 0.51 0.48 0.39 0.32 0.31 0.32 0.31 0.30 0.31 0.33 0.36 0.42 0.45 0.54 0.63 0.69 0.70 0.67 0.67 0.66 0.64 0.60 0.56 0.54 0.52 0.48
0.17 0.22 0.21 0.28 0.34 0.36 0.38 0.35 0.27 0.23 0.24 0.29 0.34 0.46 0.49 0.52 0.49 0.45 0.42 0.38 0.35 0.27 0.23 0.23 0.23 0.19 0.20 0.24 0.28 0.35 0.38 0.42 0.50 0.55 0.56 0.63 0.66 0.63 0.62 0.56 0.51 0.49 0.50 0.53
0.26 0.30 0.30 0.35 0.42 0.48 0.50 0.32 0.29 0.29 0.26 0.37 0.54 0.55 0.47 0.58 0.47 0.38 0.36 0.30 0.24 0.20 0.17 0.17 0.15 0.15 0.17 0.21 0.27 0.32 0.37 0.42 0.46 0.48 0.51 0.52 0.56 0.60 0.58 0.51 0.49 0.47 0.48 0.53
0.30 0.44 0.47 0.45 0.58 0.72 0.56 0.30 0.25 0.29 0.26 0.26 0.35 0.37 0.37 0.53 0.45 0.33 0.24 0.22 0.19 0.17 0.15 0.14 0.15 0.16 0.18 0.22 0.27 0.35 0.40 0.43 0.47 0.52 0.54 0.53 0.53 0.58 0.60 0.55 0.52 0.53 0.55 0.56
0.26 0.41 0.48 0.53 0.65 0.66 0.51 0.40 0.34 0.39 0.41 0.25 0.27 0.30 0.31 0.35 0.37 0.34 0.21 0.19 0.18 0.16 0.16 0.14 0.13 0.16 0.22 0.25 0.28 0.34 0.38 0.42 0.49 0.55 0.57 0.56 0.55 0.58 0.60 0.59 0.62 0.65 0.69 0.63
0.36 0.45 0.56 0.53 0.64 0.80 0.63 0.48 0.39 0.43 0.71 0.44 0.31 0.28 0.32 0.35 0.50 0.48 0.26 0.18 0.15 0.14 0.15 0.17 0.18 0.22 0.27 0.30 0.37 0.45 0.47 0.51 0.56 0.57 0.57 0.57 0.62 0.67 0.69 0.73 0.82 0.86 0.88 0.82
0.70 0.71 0.70 0.65 0.66 0.64 0.60 0.48 0.41 0.72 0.87 0.49 0.39 0.35 0.36 0.37 0.42 0.40 0.29 0.21 0.18 0.17 0.17 0.18 0.25 0.36 0.39 0.37 0.46 0.55 0.62 0.63 0.63 0.69 0.71 0.71 0.75 0.83 0.87 0.98 1.07 1.10 1.06 1.06
0.88 0.90 0.86 0.83 0.92 0.90 0.69 0.65 0.73 0.79 0.69 0.56 0.45 0.40 0.34 0.33 0.31 0.31 0.28 0.27 0.25 0.23 0.25 0.23 0.26 0.39 0.49 0.53 0.64 0.72 0.74 0.77 0.84 0.88 0.89 0.90 0.98 0.90 0.88 1.08 1.16 1.23 1.28 1.23
0.81 0.85 0.88 0.92 0.93 0.80 0.74 0.80 0.77 0.70 0.78 0.72 0.55 0.48 0.38 0.37 0.32 0.28 0.26 0.27 0.28 0.28 0.28 0.29 0.35 0.45 0.58 0.70 0.81 0.96 1.02 0.99 1.02 1.06 1.08 1.10 1.14 1.17 1.18 1.29 1.31 1.31 1.32 1.28
0.83 0.75 0.89 1.02 1.02 0.93 0.92 0.84 0.75 0.71 0.76 0.72 0.55 0.49 0.43 0.39 0.34 0.32 0.31 0.30 0.29 0.31 0.29 0.30 0.38 0.45 0.60 0.79 0.97 1.08 1.12 1.07 1.11 1.19 1.19 1.27 1.37 1.37 1.40 1.49 1.48 1.42 1.39 1.38
0.88 0.87 1.05 1.20 1.19 1.16 1.19 1.00 0.80 0.71 0.64 0.59 0.50 0.46 0.42 0.40 0.37 0.33 0.33 0.32 0.29 0.27 0.27 0.31 0.39 0.50 0.57 0.66 0.84 1.02 1.11 1.16 1.26 1.34 1.37 1.44 1.53 1.58 1.61 1.54 1.51 1.46 1.47 1.41
0.88 0.93 1.05 1.17 1.08 1.05 1.05 0.94 0.72 0.69 0.70 0.64 0.61 0.57 0.46 0.44 0.46 0.40 0.34 0.31 0.27 0.26 0.29 0.37 0.43 0.50 0.57 0.63 0.77 0.95 1.13 1.25 1.41 1.46 1.48 1.52 1.54 1.60 1.60 1.58 1.48 1.36 1.28 1.19

GEFSCGP_prec_meanprecacc_180.txt.gz
Total_Precipitation_Accumulation
0.00 0.00 0.00 0.00 0.01 0.01 0.01 0.04 0.11 0.14 0.13 0.19 0.29 0.49 0.64 0.63 0.80 1.19 1.42 1.39 1.38 1.69 2.19 2.55 2.80 2.98 3.29 3.46 3.57 3.48 3.60 3.93 4.20 4.06 3.70 3.45 3.10 2.84 2.64 2.42 2.26 2.26 2.24 2.39
0.00 0.01 0.00 0.01 0.01 0.01 0.02 0.06 0.13 0.15 0.14 0.22 0.37 0.59 0.75 0.85 1.10 1.26 1.18 1.19 1.37 1.68 2.19 2.57 2.82 2.95 3.19 3.49 3.90 3.94 4.04 4.34 4.42 4.19 3.99 3.79 3.56 3.15 3.01 2.86 2.60 2.28 2.14 2.24
0.01 0.01 0.01 0.01 0.01 0.02 0.04 0.06 0.12 0.12 0.19 0.32 0.41 0.80 0.97 1.09 1.23 1.22 1.18 1.35 1.42 1.52 1.91 2.19 2.27 2.45 2.63 2.80 3.04 3.28 3.68 4.13 4.19 4.18 4.10 4.02 3.92 3.38 3.12 2.90 2.63 2.35 2.16 2.10
0.01 0.01 0.01 0.02 0.02 0.02 0.06 0.05 0.05 0.08 0.17 0.43 0.50 1.02 1.23 1.42 1.49 1.31 1.26 1.24 1.26 1.49 1.81 1.84 1.72 1.87 2.11 2.11 2.39 2.74 3.13 3.42 3.61 3.71 3.67 3.64 3.47 3.20 3.07 2.88 2.48 2.23 2.05 2.00
0.02 0.02 0.02 0.04 0.03 0.03 0.05 0.04 0.06 0.10 0.18 0.39 0.44 0.79 1.27 1.59 1.69 1.33 1.22 1.16 1.24 1.45 1.51 1.52 1.55 1.66 1.81 1.97 2.26 2.52 2.77 3.02 3.16 3.20 3.20 3.18 3.00 2.82 2.74 2.59 2.30 2.08 1.93 1.82
0.02 0.04 0.04 0.03 0.03 0.04 0.04 0.07 0.13 0.19 0.35 0.69 0.59 0.69 1.19 1.49 1.32 1.15 1.12 0.96 1.05 1.28 1.38 1.45 1.52 1.64 1.74 2.02 2.36 2.59 2.78 2.97 3.01 2.78 2.64 2.56 2.53 2.48 2.34 2.16 1.98 1.79 1.68 1.58
0.13 0.10 0.07 0.05 0.06 0.07 0.08 0.17 0.55 0.91 1.22 1.12 0.70 0.80 1.38 1.25 0.89 0.81 0.90 0.89 0.90 0.98 1.14 1.24 1.41 1.61 1.78 1.86 1.91 2.20 2.53 2.73 2.69 2.46 2.27 2.15 2.17 2.16 2.06 1.90 1.78 1.68 1.50 1.39
0.28 0.25 0.13 0.09 0.12 0.13 0.13 0.24 0.69 0.94 0.98 0.96 0.77 1.16 1.59 1.19 0.80 0.66 0.75 0.76 0.68 0.64 0.61 0.70 0.85 0.94 1.03 1.06 1.08 1.19 1.39 1.59 1.66 1.60 1.58 1.58 1.61 1.63 1.62 1.68 1.56 1.52 1.42 1.29
0.16 0.15 0.10 0.12 0.17 0.18 0.24 0.28 0.29 0.49 0.66 0.98 1.00 1.18 1.20 0.93 0.73 0.68 0.77 0.73 0.59 0.53 0.47 0.52 0.60 0.59 0.68 0.71 0.75 0.88 1.03 1.18 1.22 1.21 1.19 1.20 1.20 1.28 1.31 1.32 1.29 1.28 1.27 1.19
0.10 0.10 0.10 0.11 0.15 0.18 0.20 0.28 0.42 0.66 0.88 0.98 1.03 1.33 1.46 1.28 1.03 0.82 0.79 0.73 0.56 0.46 0.41 0.44 0.50 0.50 0.60 0.73 0.86 0.99 1.05 1.07 1.05 1.06 1.04 0.95 1.02 1.06 1.12 1.07 1.01 0.98 0.98 0.99
0.08 0.09 0.12 0.18 0.22 0.22 0.23 0.30 0.45 0.61 0.68 0.85 1.14 1.23 0.95 0.89 0.91 0.96 0.99 0.84 0.58 0.44 0.39 0.40 0.46 0.48 0.54 0.65 0.76 0.86 0.93 1.01 0.97 0.92 0.96 0.94 0.95 0.96 0.97 0.96 0.88 0.88 0.88 0.87
0.09 0.11 0.16 0.24 0.21 0.16 0.22 0.32 0.47 0.70 0.75 0.78 0.89 0.94 0.55 0.53 0.64 0.76 0.77 0.62 0.45 0.37 0.35 0.36 0.38 0.37 0.45 0.55 0.63 0.66 0.72 0.85 0.85 0.83 0.88 0.93 0.92 0.88 0.86 0.82 0.78 0.80 0.82 0.84
0.15 0.15 0.26 0.52 0.48 0.26 0.25 0.24 0.35 0.49 0.59 0.65 0.82 0.91 0.55 0.52 0.64 0.69 0.67 0.53 0.42 0.40 0.39 0.43 0.39 0.35 0.39 0.49 0.57 0.61 0.66 0.75 0.82 0.83 0.88 0.88 0.88 0.86 0.80 0.70 0.70 0.69 0.71 0.76
0.12 0.14 0.23 0.58 0.64 0.42 0.31 0.27 0.30 0.42 0.53 0.49 0.48 0.62 0.60 0.58 0.70 0.69 0.64 0.52 0.40 0.35 0.37 0.40 0.44 0.39 0.37 0.40 0.44 0.50 0.61 0.73 0.74 0.75 0.77 0.75 0.73 0.73 0.74 0.72 0.68 0.64 0.66 0.69
0.12 0.16 0.17 0.25 0.33 0.37 0.36 0.29 0.26 0.29 0.32 0.41 0.42 0.55 0.66 0.64 0.64 0.56 0.51 0.48 0.40 0.32 0.31 0.33 0.32 0.32 0.32 0.34 0.37 0.43 0.45 0.55 0.63 0.70 0.71 0.70 0.70 0.69 0.68 0.66 0.61 0.59 0.58 0.55
0.18 0.22 0.22 0.28 0.34 0.36 0.38 0.35 0.27 0.23 0.24 0.29 0.34 0.46 0.49 0.52 0.49 0.45 0.42 0.38 0.36 0.28 0.23 0.23 0.23 0.21 0.22 0.26 0.29 0.36 0.38 0.42 0.51 0.56 0.58 0.66 0.70 0.67 0.66 0.60 0.56 0.54 0.55 0.59
0.27 0.31 0.31 0.35 0.43 0.48 0.51 0.33 0.29 0.30 0.26 0.37 0.54 0.55 0.47 0.58 0.47 0.38 0.36 0.30 0.24 0.20 0.17 0.17 0.16 0.16 0.19 0.22 0.27 0.32 0.37 0.42 0.46 0.49 0.52 0.54 0.60 0.65 0.62 0.55 0.52 0.51 0.52 0.58
0.31 0.45 0.49 0.46 0.60 0.74 0.57 0.31 0.26 0.30 0.27 0.26 0.35 0.37 0.37 0.54 0.45 0.33 0.26 0.24 0.20 0.18 0.16 0.14 0.15 0.16 0.20 0.23 0.27 0.35 0.40 0.43 0.47 0.53 0.55 0.55 0.55 0.61 0.63 0.59 0.55 0.57 0.58 0.60
0.27 0.42 0.50 0.56 0.67 0.69 0.53 0.41 0.36 0.41 0.43 0.25 0.28 0.31 0.31 0.35 0.37 0.35 0.21 0.20 0.19 0.18 0.17 0.15 0.13 0.16 0.23 0.25 0.28 0.34 0.38 0.42 0.50 0.56 0.58 0.57 0.57 0.60 0.62 0.62 0.65 0.68 0.73 0.67
0.37 0.47 0.58 0.55 0.66 0.82 0.65 0.49 0.40 0.44 0.73 0.44 0.31 0.29 0.32 0.35 0.51 0.49 0.27 0.19 0.16 0.16 0.17 0.19 0.20 0.23 0.28 0.31 0.37 0.45 0.49 0.52 0.56 0.58 0.58 0.58 0.64 0.68 0.70 0.76 0.85 0.90 0.93 0.87
0.73 0.73 0.72 0.67 0.68 0.66 0.62 0.49 0.42 0.74 0.89 0.50 0.39 0.36 0.36 0.37 0.43 0.40 0.29 0.22 0.19 0.18 0.19 0.21 0.27 0.38 0.41 0.38 0.47 0.57 0.64 0.65 0.64 0.70 0.72 0.73 0.78 0.86 0.91 1.02 1.12 1.16 1.12 1.12
0.93 0.94 0.90 0.86 0.94 0.92 0.70 0.66 0.74 0.80 0.70 0.57 0.45 0.41 0.35 0.34 0.32 0.32 0.30 0.29 0.26 0.24 0.26 0.24 0.28 0.42 0.51 0.55 0.65 0.73 0.76 0.79 0.86 0.90 0.90 0.92 1.01 0.94 0.93 1.13 1.22 1.30 1.35 1.30
0.86 0.89 0.92 0.95 0.95 0.82 0.75 0.80 0.78 0.71 0.79 0.73 0.56 0.49 0.40 0.38 0.33 0.29 0.28 0.28 0.29 0.29 0.29 0.30 0.35 0.47 0.60 0.72 0.83 0.99 1.04 1.01 1.04 1.08 1.11 1.13 1.18 1.23 1.24 1.36 1.41 1.43 1.42 1.37
0.88 0.79 0.92 1.04 1.05 0.96 0.94 0.85 0.77 0.72 0.77 0.72 0.56 0.50 0.44 0.40 0.35 0.33 0.32 0.31 0.30 0.32 0.30 0.31 0.39 0.48 0.62 0.81 0.99 1.10 1.14 1.10 1.15 1.24 1.24 1.32 1.43 1.44 1.49 1.59 1.59 1.56 1.52 1.48
0.93 0.92 1.10 1.24 1.23 1.20 1.22 1.04 0.82 0.73 0.66 0.60 0.51 0.47 0.44 0.41 0.38 0.34 0.34 0.34 0.30 0.28 0.28 0.32 0.42 0.54 0.60 0.69 0.87 1.05 1.14 1.21 1.31 1.40 1.44 1.52 1.62 1.68 1.73 1.65 1.62 1.59 1.62 1.55
0.92 0.98 1.11 1.22 1.12 1.09 1.11 0.98 0.75 0.71 0.72 0.66 0.64 0.62 0.52 0.47 0.48 0.41 0.35 0.32 0.28 0.27 0.29 0.37 0.44 0.53 0.61 0.67 0.80 0.97 1.15 1.28 1.45 1.50 1.53 1.59 1.63 1.71 1.73 1.71 1.61 1.49 1.42 1.34

GEFSCGP_prec_meanprecacc_186.txt.gz
Total_Precipitation_Accumulation
0.00 0.00 0.00 0.00 0.01 0.01 0.01 0.04 0.11 0.14 0.13 0.19 0.29 0.49 0.64 0.63 0.80 1.19 1.42 1.39 1.38 1.69 2.19 2.55 2.80 2.98 3.29 3.47 3.59 3.53 3.68 4.00 4.28 4.11 3.75 3.51 3.16 2.89 2.69 2.45 2.30 2.29 2.28 2.42
0.00 0.01 0.00 0.01 0.01 0.01 0.02 0.06 0.13 0.15 0.14 0.22 0.37 0.59 0.75 0.85 1.10 1.26 1.18 1.19 1.37 1.69 2.19 2.57 2.82 2.95 3.19 3.50 3.91 3.96 4.08 4.38 4.47 4.23 4.05 3.86 3.63 3.21 3.07 2.91 2.67 2.32 2.18 2.27
0.01 0.01 0.01 0.01 0.01 0.02 0.04 0.07 0.12 0.13 0.20 0.32 0.41 0.80 0.97 1.10 1.23 1.22 1.18 1.35 1.42 1.52 1.91 2.19 2.27 2.45 2.63 2.80 3.04 3.29 3.71 4.17 4.24 4.24 4.16 4.09 4.01 3.47 3.20 2.97 2.69 2.39 2.20 2.13
0.01 0.01 0.01 0.02 0.02 0.02 0.06 0.06 0.05 0.09 0.17 0.43 0.50 1.02 1.24 1.43 1.51 1.31 1.26 1.24 1.26 1.49 1.81 1.84 1.72 1.87 2.12 2.11 2.39 2.75 3.16 3.46 3.65 3.76 3.72 3.68 3.51 3.26 3.13 2.93 2.54 2.27 2.09 2.03
0.02 0.02 0.02 0.04 0.03 0.03 0.05 0.04 0.06 0.10 0.18 0.39 0.44 0.79 1.28 1.65 1.75 1.34 1.22 1.16 1.24 1.46 1.52 1.52 1.56 1.66 1.81 1.97 2.27 2.53 2.79 3.05 3.20 3.24 3.24 3.23 3.06 2.90 2.82 2.67 2.38 2.14 1.99 1.87
0.02 0.04 0.04 0.03 0.03 0.04 0.04 0.07 0.13 0.19 0.35 0.69 0.59 0.69 1.20 1.54 1.39 1.19 1.13 0.97 1.06 1.28 1.38 1.45 1.53 1.64 1.75 2.03 2.37 2.60 2.80 3.00 3.04 2.82 2.68 2.62 2.61 2.57 2.44 2.26 2.07 1.86 1.74 1.63
0.13 0.10 0.07 0.05 0.06 0.07 0.08 0.17 0.56 0.91 1.23 1.12 0.70 0.80 1.38 1.25 0.90 0.83 0.91 0.89 0.90 0.98 1.14 1.25 1.41 1.61 1.78 1.87 1.92 2.22 2.56 2.76 2.72 2.50 2.31 2.18 2.23 2.27 2.15 1.97 1.86 1.76 1.55 1.43
0.28 0.25 0.13 0.09 0.12 0.13 0.13 0.24 0.69 0.94 0.99 0.97 0.77 1.16 1.59 1.19 0.80 0.66 0.75 0.76 0.68 0.64 0.61 0.70 0.86 0.95 1.04 1.06 1.09 1.21 1.41 1.62 1.71 1.65 1.63 1.63 1.67 1.69 1.68 1.75 1.62 1.59 1.46 1.32
0.16 0.15 0.10 0.12 0.17 0.18 0.24 0.28 0.29 0.49 0.68 1.01 1.01 1.19 1.20 0.94 0.73 0.68 0.77 0.73 0.59 0.53 0.47 0.52 0.61 0.60 0.69 0.72 0.77 0.89 1.06 1.21 1.26 1.27 1.25 1.27 1.28 1.34 1.38 1.39 1.34 1.35 1.32 1.24
0.10 0.10 0.10 0.11 0.15 0.18 0.20 0.28 0.42 0.66 0.89 1.01 1.05 1.34 1.47 1.29 1.03 0.82 0.80 0.73 0.56 0.46 0.41 0.44 0.51 0.50 0.61 0.74 0.87 1.01 1.07 1.10 1.08 1.10 1.09 1.02 1.10 1.13 1.19 1.14 1.07 1.06 1.05 1.05
0.08 0.09 0.12 0.18 0.22 0.22 0.23 0.30 0.45 0.61 0.68 0.85 1.15 1.24 0.96 0.89 0.91 0.96 0.99 0.84 0.58 0.44 0.39 0.41 0.47 0.48 0.55 0.67 0.78 0.88 0.96 1.05 1.01 0.96 1.00 1.02 1.03 1.03 1.05 1.02 0.94 0.96 0.97 0.96
0.09 0.11 0.16 0.24 0.21 0.16 0.22 0.32 0.47 0.70 0.75 0.78 0.90 0.96 0.56 0.54 0.64 0.76 0.77 0.62 0.45 0.37 0.35 0.37 0.39 0.38 0.47 0.57 0.65 0.68 0.75 0.88 0.89 0.87 0.93 1.01 1.00 0.96 0.93 0.88 0.84 0.87 0.90 0.91
0.15 0.15 0.26 0.53 0.49 0.26 0.25 0.25 0.35 0.49 0.59 0.66 0.83 0.93 0.55 0.53 0.65 0.69 0.67 0.53 0.42 0.40 0.39 0.44 0.41 0.37 0.41 0.51 0.59 0.62 0.68 0.78 0.85 0.86 0.93 0.96 0.96 0.94 0.87 0.77 0.76 0.76 0.78 0.82
0.13 0.14 0.24 0.60 0.64 0.42 0.31 0.27 0.30 0.42 0.53 0.50 0.48 0.63 0.62 0.59 0.71 0.70 0.65 0.54 0.41 0.35 0.38 0.44 0.50 0.44 0.39 0.42 0.46 0.51 0.63 0.76 0.77 0.77 0.81 0.81 0.80 0.81 0.81 0.78 0.73 0.70 0.72 0.75
0.12 0.16 0.17 0.26 0.34 0.37 0.36 0.30 0.26 0.29 0.32 0.41 0.42 0.56 0.67 0.65 0.66 0.57 0.51 0.49 0.42 0.33 0.32 0.38 0.38 0.34 0.34 0.35 0.38 0.44 0.47 0.57 0.66 0.72 0.74 0.75 0.76 0.76 0.75 0.72 0.67 0.65 0.64 0.61
0.18 0.23 0.22 0.29 0.35 0.37 0.38 0.35 0.27 0.23 0.24 0.29 0.35 0.47 0.50 0.54 0.50 0.48 0.44 0.41 0.37 0.29 0.24 0.28 0.26 0.22 0.23 0.26 0.30 0.37 0.40 0.45 0.53 0.58 0.60 0.71 0.76 0.75 0.73 0.65 0.61 0.60 0.62 0.65
0.28 0.32 0.31 0.35 0.43 0.49 0.51 0.33 0.29 0.30 0.26 0.37 0.55 0.58 0.50 0.63 0.49 0.39 0.37 0.33 0.27 0.25 0.20 0.19 0.16 0.16 0.20 0.23 0.28 0.34 0.39 0.43 0.48 0.52 0.54 0.57 0.64 0.70 0.69 0.60 0.57 0.57 0.59 0.64
0.34 0.48 0.50 0.47 0.61 0.76 0.58 0.31 0.26 0.31 0.27 0.26 0.37 0.40 0.40 0.59 0.50 0.36 0.28 0.26 0.22 0.20 0.18 0.15 0.15 0.17 0.21 0.25 0.28 0.36 0.43 0.45 0.49 0.55 0.57 0.56 0.57 0.64 0.69 0.65 0.61 0.63 0.65 0.66
0.30 0.46 0.52 0.58 0.71 0.72 0.56 0.43 0.37 0.42 0.45 0.27 0.30 0.34 0.35 0.39 0.42 0.43 0.28 0.24 0.20 0.18 0.18 0.15 0.14 0.17 0.24 0.27 0.29 0.35 0.40 0.44 0.52 0.58 0.60 0.59 0.59 0.63 0.68 0.68 0.71 0.75 0.80 0.74
0.38 0.49 0.61 0.58 0.71 0.87 0.69 0.52 0.42 0.47 0.82 0.50 0.33 0.30 0.33 0.38 0.55 0.58 0.36 0.24 0.18 0.17 0.19 0.20 0.21 0.24 0.29 0.32 0.39 0.47 0.50 0.54 0.59 0.60 0.60 0.60 0.66 0.72 0.75 0.82 0.92 0.99 1.01 0.94
0.77 0.78 0.76 0.70 0.74 0.74 0.67 0.51 0.45 0.80 0.98 0.55 0.41 0.37 0.39 0.42 0.49 0.47 0.34 0.25 0.21 0.21 0.21 0.23 0.30 0.41 0.43 0.40 0.50 0.60 0.68 0.69 0.68 0.74 0.77 0.77 0.81 0.91 0.98 1.13 1.22 1.27 1.23 1.26
0.98 0.99 0.95 0.92 1.03 1.03 0.76 0.70 0.80 0.89 0.79 0.62 0.49 0.46 0.39 0.37 0.35 0.35 0.31 0.30 0.27 0.26 0.28 0.27 0.31 0.45 0.55 0.58 0.69 0.78 0.82 0.84 0.91 0.95 0.95 0.98 1.06 0.99 1.02 1.25 1.33 1.40 1.46 1.43
0.93 0.97 1.00 1.04 1.07 0.92 0.81 0.87 0.87 0.78 0.85 0.78 0.59 0.52 0.43 0.40 0.35 0.31 0.30 0.30 0.31 0.30 0.31 0.32 0.37 0.48 0.62 0.74 0.87 1.03 1.09 1.06 1.08 1.14 1.16 1.20 1.24 1.31 1.35 1.47 1.52 1.53 1.52 1.49
0.98 0.88 1.01 1.13 1.15 1.06 1.02 0.94 0.88 0.85 0.84 0.77 0.59 0.53 0.46 0.42 0.36 0.35 0.34 0.34 0.32 0.34 0.32 0.33 0.40 0.49 0.65 0.83 1.02 1.15 1.19 1.15 1.21 1.30 1.31 1.40 1.51 1.53 1.60 1.71 1.70 1.67 1.63 1.60
1.04 1.02 1.23 1.35 1.34 1.32 1.30 1.12 0.91 0.82 0.71 0.65 0.54 0.50 0.46 0.43 0.39 0.36 0.36 0.36 0.33 0.30 0.30 0.33 0.43 0.56 0.63 0.71 0.89 1.07 1.18 1.25 1.37 1.46 1.50 1.62 1.72 1.79 1.84 1.75 1.73 1.72 1.75 1.69
1.04 1.09 1.24 1.36 1.24 1.22 1.23 1.09 0.82 0.77 0.78 0.71 0.67 0.65 0.55 0.49 0.49 0.42 0.37 0.34 0.30 0.28 0.31 0.38 0.44 0.54 0.63 0.68 0.81 0.99 1.17 1.31 1.50 1.56 1.60 1.68 1.72 1.82 1.83 1.82 1.73 1.60 1.52 1.47

GEFSCGP_prec_meanprecacc_192.txt.gz
Total_Precipitation_Accumulation
0.00 0.00 0.00 0.00 0.01 0.01 0.01 0.04 0.11 0.15 0.13 0.20 0.30 0.50 0.64 0.63 0.81 1.20 1.43 1.44 1.42 1.72 2.21 2.57 2.81 2.99 3.31 3.48 3.61 3.56 3.71 4.04 4.33 4.16 3.78 3.53 3.19 2.94 2.73 2.49 2.33 2.31 2.29 2.43
0.00 0.01 0.00 0.01 0.01 0.01 0.02 0.06 0.14 0.16 0.15 0.24 0.38 0.60 0.76 0.85 1.10 1.27 1.21 1.22 1.39 1.76 2.25 2.61 2.85 2.97 3.21 3.52 3.93 3.99 4.10 4.40 4.50 4.28 4.11 3.91 3.69 3.27 3.13 2.98 2.73 2.38 2.22 2.30
0.01 0.01 0.01 0.01 0.01 0.02 0.04 0.07 0.13 0.14 0.21 0.34 0.43 0.81 0.98 1.10 1.24 1.24 1.21 1.42 1.46 1.55 1.95 2.22 2.30 2.48 2.65 2.82 3.06 3.31 3.74 4.21 4.29 4.30 4.22 4.14 4.07 3.52 3.25 3.05 2.76 2.45 2.24 2.17
0.01 0.01 0.01 0.02 0.02 0.02 0.06 0.06 0.06 0.10 0.19 0.45 0.51 1.03 1.25 1.44 1.53 1.34 1.30 1.27 1.29 1.53 1.86 1.88 1.75 1.90 2.14 2.14 2.42 2.78 3.20 3.51 3.69 3.81 3.76 3.72 3.56 3.30 3.17 2.99 2.60 2.34 2.17 2.11
0.02 0.02 0.02 0.04 0.03 0.03 0.05 0.04 0.07 0.11 0.19 0.40 0.46 0.80 1.29 1.66 1.78 1.40 1.27 1.18 1.28 1.50 1.56 1.55 1.57 1.67 1.83 1.99 2.29 2.55 2.82 3.07 3.22 3.27 3.28 3.29 3.13 2.96 2.87 2.72 2.44 2.20 2.06 1.95
0.02 0.04 0.04 0.03 0.03 0.04 0.04 0.07 0.13 0.20 0.36 0.71 0.61 0.71 1.21 1.55 1.41 1.21 1.16 1.00 1.09 1.32 1.41 1.47 1.54 1.66 1.78 2.06 2.38 2.61 2.81 3.01 3.05 2.83 2.70 2.65 2.65 2.61 2.49 2.30 2.11 1.90 1.80 1.69
0.13 0.10 0.07 0.05 0.06 0.07 0.08 0.17 0.56 0.92 1.24 1.13 0.71 0.81 1.39 1.26 0.91 0.84 0.93 0.92 0.93 1.00 1.15 1.26 1.43 1.64 1.80 1.89 1.93 2.24 2.59 2.80 2.75 2.52 2.33 2.21 2.27 2.30 2.20 2.03 1.93 1.81 1.61 1.47
0.28 0.25 0.13 0.09 0.12 0.13 0.13 0.24 0.69 0.95 0.99 0.97 0.77 1.17 1.60 1.20 0.81 0.67 0.77 0.79 0.69 0.65 0.63 0.72 0.89 0.99 1.07 1.09 1.11 1.23 1.45 1.67 1.77 1.69 1.68 1.68 1.71 1.73 1.71 1.78 1.67 1.64 1.51 1.37
0.16 0.15 0.10 0.12 0.17 0.18 0.24 0.28 0.29 0.49 0.68 1.01 1.02 1.19 1.21 0.96 0.78 0.73 0.83 0.76 0.60 0.54 0.49 0.56 0.66 0.66 0.74 0.76 0.80 0.92 1.10 1.26 1.32 1.32 1.32 1.35 1.34 1.39 1.42 1.42 1.37 1.39 1.37 1.29
0.10 0.10 0.10 0.11 0.15 0.18 0.20 0.28 0.42 0.67 0.90 1.02 1.09 1.36 1.49 1.32 1.08 0.96 0.92 0.76 0.57 0.47 0.44 0.48 0.55 0.55 0.65 0.77 0.90 1.05 1.14 1.16 1.14 1.16 1.15 1.07 1.17 1.19 1.23 1.18 1.11 1.10 1.11 1.13
0.08 0.09 0.12 0.18 0.22 0.22 0.23 0.30 0.45 0.62 0.69 0.87 1.19 1.27 1.00 0.94 0.97 1.05 1.05 0.87 0.60 0.45 0.41 0.43 0.50 0.51 0.58 0.70 0.82 0.92 1.01 1.11 1.08 1.04 1.07 1.11 1.12 1.12 1.10 1.06 0.98 1.01 1.03 1.02
0.09 0.11 0.16 0.24 0.21 0.16 0.22 0.32 0.47 0.70 0.76 0.80 0.93 0.99 0.58 0.57 0.68 0.80 0.81 0.65 0.47 0.39 0.37 0.40 0.43 0.42 0.52 0.65 0.73 0.74 0.79 0.94 0.96 0.94 1.01 1.11 1.11 1.06 1.00 0.93 0.88 0.92 0.95 0.96
0.15 0.15 0.27 0.53 0.49 0.26 0.25 0.25 0.35 0.49 0.60 0.68 0.85 0.95 0.57 0.54 0.68 0.74 0.71 0.56 0.47 0.43 0.43 0.47 0.44 0.41 0.47 0.57 0.65 0.66 0.71 0.82 0.91 0.93 0.99 1.02 1.04 1.02 0.93 0.83 0.82 0.82 0.83 0.87
0.13 0.14 0.24 0.61 0.65 0.43 0.31 0.27 0.31 0.43 0.54 0.51 0.49 0.65 0.63 0.62 0.76 0.75 0.71 0.60 0.56 0.46 0.43 0.48 0.53 0.47 0.46 0.50 0.54 0.56 0.67 0.81 0.83 0.84 0.88 0.87 0.84 0.85 0.87 0.84 0.79 0.75 0.77 0.81
0.13 0.16 0.17 0.26 0.34 0.38 0.37 0.30 0.26 0.29 0.32 0.42 0.43 0.57 0.69 0.69 0.73 0.65 0.59 0.57 0.57 0.48 0.41 0.43 0.42 0.41 0.41 0.42 0.46 0.50 0.52 0.62 0.72 0.79 0.81 0.80 0.82 0.81 0.79 0.76 0.71 0.70 0.69 0.66
0.19 0.23 0.22 0.29 0.36 0.38 0.39 0.35 0.28 0.24 0.25 0.29 0.36 0.49 0.53 0.60 0.61 0.59 0.51 0.48 0.52 0.39 0.31 0.33 0.29 0.25 0.28 0.33 0.36 0.42 0.44 0.50 0.59 0.62 0.64 0.75 0.82 0.79 0.76 0.69 0.64 0.63 0.65 0.70
0.29 0.32 0.32 0.36 0.44 0.52 0.53 0.34 0.30 0.31 0.28 0.38 0.57 0.60 0.53 0.69 0.63 0.52 0.46 0.40 0.34 0.31 0.29 0.24 0.20 0.19 0.24 0.28 0.34 0.38 0.44 0.47 0.52 0.56 0.58 0.60 0.68 0.74 0.72 0.64 0.61 0.59 0.63 0.70
0.35 0.49 0.51 0.48 0.64 0.78 0.60 0.33 0.28 0.33 0.30 0.30 0.41 0.43 0.44 0.67 0.64 0.49 0.40 0.37 0.30 0.29 0.28 0.23 0.22 0.21 0.26 0.30 0.34 0.43 0.49 0.50 0.53 0.60 0.61 0.59 0.60 0.67 0.71 0.68 0.65 0.67 0.70 0.71
0.30 0.47 0.54 0.59 0.73 0.73 0.57 0.44 0.39 0.44 0.49 0.32 0.35 0.39 0.40 0.46 0.52 0.54 0.39 0.39 0.41 0.34 0.33 0.28 0.24 0.23 0.30 0.33 0.36 0.42 0.46 0.51 0.57 0.61 0.63 0.61 0.61 0.66 0.71 0.72 0.76 0.81 0.85 0.78
0.39 0.50 0.63 0.60 0.74 0.89 0.72 0.55 0.45 0.50 0.85 0.54 0.37 0.34 0.37 0.42 0.63 0.70 0.48 0.37 0.34 0.31 0.34 0.35 0.31 0.33 0.35 0.37 0.44 0.52 0.56 0.59 0.64 0.64 0.63 0.62 0.67 0.73 0.77 0.85 0.98 1.05 1.07 1.00
0.78 0.80 0.78 0.72 0.77 0.78 0.69 0.54 0.48 0.84 1.03 0.60 0.47 0.42 0.44 0.46 0.55 0.57 0.47 0.39 0.34 0.35 0.39 0.46 0.51 0.57 0.56 0.49 0.58 0.67 0.75 0.75 0.74 0.79 0.81 0.80 0.84 0.94 1.02 1.16 1.27 1.33 1.29 1.32
1.00 1.01 0.96 0.94 1.07 1.07 0.79 0.75 0.87 0.96 0.87 0.68 0.56 0.53 0.48 0.46 0.43 0.45 0.44 0.43 0.38 0.38 0.43 0.46 0.50 0.63 0.69 0.68 0.78 0.87 0.90 0.91 0.97 1.02 1.03 1.05 1.13 1.05 1.08 1.31 1.39 1.49 1.57 1.54
0.97 1.01 1.03 1.08 1.11 0.98 0.88 0.98 1.01 0.90 0.93 0.86 0.69 0.63 0.57 0.55 0.45 0.40 0.40 0.39 0.40 0.39 0.41 0.46 0.49 0.58 0.69 0.79 0.91 1.08 1.14 1.10 1.14 1.20 1.25 1.30 1.35 1.39 1.42 1.54 1.60 1.62 1.63 1.60
1.05 0.93 1.06 1.19 1.22 1.13 1.12 1.08 1.06 1.01 0.98 0.87 0.69 0.65 0.59 0.55 0.47 0.45 0.43 0.42 0.43 0.41 0.39 0.40 0.47 0.55 0.69 0.87 1.06 1.20 1.24 1.19 1.26 1.36 1.39 1.51 1.65 1.68 1.70 1.79 1.79 1.76 1.73 1.70
1.17 1.12 1.35 1.48 1.45 1.46 1.47 1.29 1.14 1.03 0.88 0.77 0.64 0.59 0.54 0.51 0.48 0.44 0.43 0.44 0.41 0.36 0.36 0.38 0.47 0.60 0.67 0.75 0.92 1.10 1.21 1.28 1.40 1.50 1.55 1.69 1.83 1.92 1.96 1.84 1.82 1.82 1.85 1.79
1.20 1.25 1.43 1.57 1.43 1.39 1.45 1.30 1.06 1.02 1.00 0.88 0.81 0.75 0.64 0.57 0.56 0.48 0.42 0.38 0.35 0.33 0.35 0.42 0.47 0.57 0.65 0.70 0.82 1.00 1.19 1.33 1.52 1.58 1.63 1.74 1.82 1.92 1.93 1.91 1.80 1.67 1.59 1.53

GEFSCGP_prec_meanprecacc_198.txt.gz
Total_Precipitation_Accumulation
0.00 0.00 0.00 0.00 0.01 0.01 0.01 0.04 0.11 0.15 0.14 0.20 0.30 0.50 0.64 0.63 0.81 1.20 1.43 1.45 1.42 1.72 2.22 2.58 2.83 3.01 3.34 3.50 3.62 3.58 3.73 4.06 4.35 4.19 3.83 3.58 3.23 2.99 2.79 2.54 2.36 2.35 2.34 2.48
0.00 0.01 0.00 0.01 0.01 0.01 0.02 0.06 0.14 0.16 0.15 0.25 0.38 0.60 0.76 0.85 1.10 1.27 1.21 1.23 1.40 1.77 2.27 2.63 2.91 3.07 3.32 3.57 3.95 4.02 4.14 4.44 4.53 4.33 4.19 3.99 3.77 3.37 3.23 3.06 2.81 2.47 2.30 2.38
0.01 0.01 0.01 0.01 0.01 0.02 0.04 0.07 0.13 0.14 0.21 0.34 0.43 0.82 0.99 1.11 1.25 1.24 1.21 1.42 1.46 1.56 1.98 2.26 2.38 2.58 2.76 2.87 3.09 3.35 3.78 4.25 4.36 4.39 4.31 4.21 4.16 3.62 3.33 3.13 2.86 2.55 2.32 2.24
0.01 0.01 0.01 0.02 0.02 0.02 0.06 0.06 0.06 0.10 0.19 0.45 0.52 1.04 1.25 1.45 1.54 1.34 1.31 1.28 1.30 1.56 1.89 1.92 1.79 1.94 2.18 2.17 2.45 2.82 3.24 3.54 3.74 3.86 3.83 3.78 3.63 3.37 3.26 3.10 2.69 2.41 2.22 2.17
0.02 0.02 0.02 0.04 0.03 0.03 0.05 0.04 0.07 0.11 0.19 0.41 0.46 0.81 1.29 1.66 1.78 1.40 1.28 1.19 1.29 1.55 1.61 1.58 1.60 1.71 1.87 2.03 2.33 2.59 2.87 3.11 3.26 3.31 3.33 3.33 3.18 3.04 2.97 2.84 2.53 2.25 2.10 2.01
0.02 0.04 0.04 0.03 0.03 0.04 0.04 0.07 0.13 0.20 0.37 0.71 0.61 0.71 1.21 1.55 1.41 1.21 1.17 1.00 1.10 1.33 1.43 1.49 1.57 1.70 1.82 2.10 2.43 2.67 2.87 3.06 3.09 2.85 2.72 2.68 2.69 2.66 2.54 2.35 2.16 1.95 1.84 1.76
0.13 0.10 0.07 0.05 0.06 0.07 0.08 0.17 0.56 0.92 1.24 1.14 0.72 0.82 1.39 1.26 0.91 0.84 0.93 0.92 0.94 1.01 1.16 1.28 1.45 1.66 1.84 1.92 1.98 2.32 2.66 2.84 2.78 2.54 2.36 2.24 2.29 2.32 2.22 2.05 1.97 1.86 1.67 1.54
0.28 0.25 0.13 0.09 0.12 0.13 0.13 0.24 0.69 0.95 0.99 0.97 0.78 1.17 1.60 1.20 0.81 0.67 0.77 0.79 0.70 0.66 0.63 0.72 0.90 1.02 1.11 1.13 1.16 1.28 1.50 1.72 1.80 1.72 1.71 1.70 1.73 1.74 1.72 1.80 1.70 1.68 1.57 1.44
0.16 0.15 0.10 0.12 0.17 0.18 0.24 0.28 0.29 0.49 0.68 1.01 1.02 1.19 1.21 0.96 0.78 0.73 0.83 0.77 0.61 0.55 0.50 0.57 0.67 0.68 0.77 0.80 0.84 0.98 1.17 1.32 1.37 1.36 1.36 1.37 1.36 1.40 1.43 1.43 1.39 1.40 1.40 1.35
0.10 0.10 0.10 0.11 0.15 0.18 0.20 0.28 0.42 0.67 0.90 1.02 1.09 1.36 1.49 1.32 1.08 0.96 0.92 0.78 0.58 0.48 0.44 0.49 0.58 0.58 0.68 0.81 0.96 1.11 1.22 1.25 1.22 1.23 1.21 1.11 1.20 1.22 1.25 1.20 1.13 1.12 1.13 1.16
0.08 0.09 0.12 0.18 0.22 0.22 0.23 0.30 0.45 0.62 0.69 0.87 1.19 1.27 1.00 0.94 0.97 1.05 1.06 0.88 0.61 0.46 0.42 0.45 0.54 0.57 0.63 0.75 0.88 1.01 1.13 1.23 1.19 1.13 1.14 1.16 1.17 1.16 1.14 1.09 1.00 1.04 1.06 1.05
0.09 0.11 0.16 0.24 0.21 0.16 0.22 0.32 0.47 0.70 0.76 0.80 0.93 0.99 0.58 0.57 0.68 0.81 0.81 0.65 0.48 0.41 0.40 0.45 0.49 0.50 0.59 0.70 0.79 0.80 0.87 1.02 1.04 1.02 1.11 1.24 1.22 1.15 1.06 0.97 0.91 0.96 0.99 0.99
0.15 0.15 0.27 0.53 0.49 0.26 0.25 0.25 0.35 0.49 0.60 0.68 0.85 0.95 0.57 0.55 0.68 0.75 0.71 0.57 0.49 0.47 0.47 0.53 0.52 0.48 0.53 0.63 0.71 0.71 0.77 0.89 0.98 1.01 1.10 1.17 1.14 1.09 0.98 0.87 0.88 0.88 0.88 0.93
0.13 0.14 0.24 0.61 0.65 0.43 0.31 0.27 0.31 0.43 0.54 0.51 0.49 0.65 0.63 0.62 0.76 0.76 0.73 0.63 0.59 0.51 0.51 0.58 0.63 0.55 0.52 0.57 0.60 0.61 0.72 0.87 0.90 0.91 0.95 0.96 0.91 0.89 0.90 0.89 0.84 0.81 0.85 0.88
0.13 0.16 0.17 0.26 0.35 0.38 0.37 0.30 0.26 0.29 0.33 0.42 0.43 0.57 0.69 0.69 0.73 0.65 0.60 0.59 0.61 0.53 0.46 0.49 0.47 0.47 0.48 0.49 0.51 0.56 0.57 0.68 0.78 0.84 0.85 0.85 0.86 0.86 0.84 0.82 0.77 0.77 0.77 0.73
0.19 0.23 0.22 0.29 0.36 0.38 0.39 0.35 0.28 0.24 0.25 0.29 0.36 0.50 0.53 0.61 0.61 0.60 0.52 0.50 0.55 0.43 0.35 0.37 0.32 0.29 0.32 0.38 0.42 0.47 0.48 0.55 0.64 0.66 0.67 0.79 0.87 0.85 0.83 0.75 0.71 0.70 0.71 0.75
0.30 0.33 0.32 0.36 0.44 0.52 0.54 0.34 0.31 0.31 0.28 0.39 0.58 0.60 0.54 0.70 0.64 0.54 0.48 0.42 0.38 0.35 0.32 0.27 0.22 0.22 0.26 0.32 0.38 0.42 0.48 0.51 0.56 0.60 0.62 0.64 0.72 0.79 0.76 0.69 0.66 0.65 0.69 0.75
0.35 0.49 0.52 0.48 0.64 0.79 0.61 0.34 0.29 0.33 0.31 0.30 0.41 0.44 0.45 0.68 0.66 0.50 0.42 0.38 0.33 0.31 0.30 0.25 0.25 0.25 0.30 0.35 0.39 0.47 0.54 0.55 0.57 0.65 0.67 0.64 0.64 0.71 0.74 0.71 0.69 0.72 0.75 0.76
0.31 0.48 0.55 0.60 0.73 0.74 0.59 0.46 0.41 0.45 0.49 0.33 0.36 0.40 0.41 0.47 0.53 0.56 0.40 0.41 0.42 0.36 0.35 0.31 0.29 0.30 0.38 0.42 0.43 0.50 0.54 0.59 0.64 0.67 0.68 0.66 0.65 0.70 0.75 0.75 0.79 0.85 0.90 0.83
0.39 0.51 0.64 0.61 0.75 0.90 0.73 0.56 0.46 0.51 0.86 0.55 0.38 0.35 0.38 0.44 0.64 0.71 0.49 0.38 0.36 0.34 0.37 0.41 0.38 0.43 0.47 0.49 0.55 0.63 0.68 0.75 0.79 0.74 0.70 0.68 0.73 0.78 0.81 0.89 1.02 1.09 1.11 1.04
0.79 0.81 0.79 0.73 0.78 0.79 0.70 0.55 0.49 0.85 1.05 0.61 0.48 0.44 0.46 0.48 0.56 0.58 0.49 0.41 0.37 0.39 0.44 0.53 0.62 0.69 0.72 0.66 0.72 0.80 0.89 0.94 0.91 0.91 0.89 0.86 0.90 0.99 1.06 1.20 1.30 1.37 1.34 1.38
1.01 1.02 0.97 0.95 1.08 1.08 0.80 0.76 0.89 0.98 0.88 0.71 0.59 0.57 0.51 0.48 0.45 0.47 0.46 0.47 0.43 0.43 0.51 0.56 0.62 0.73 0.81 0.89 0.95 1.00 1.00 1.04 1.11 1.10 1.10 1.12 1.18 1.10 1.12 1.34 1.43 1.54 1.63 1.60
0.99 1.01 1.04 1.08 1.12 0.99 0.89 1.00 1.04 0.93 0.96 0.89 0.73 0.69 0.63 0.58 0.48 0.43 0.45 0.46 0.47 0.48 0.52 0.58 0.60 0.67 0.80 0.92 1.01 1.15 1.21 1.19 1.25 1.30 1.31 1.35 1.39 1.44 1.46 1.59 1.64 1.67 1.69 1.66
1.07 0.95 1.08 1.20 1.24 1.15 1.13 1.10 1.08 1.04 1.01 0.90 0.73 0.71 0.67 0.60 0.51 0.49 0.49 0.52 0.52 0.52 0.51 0.53 0.60 0.65 0.77 0.94 1.11 1.25 1.29 1.25 1.33 1.43 1.44 1.54 1.68 1.73 1.74 1.84 1.84 1.83 1.82 1.76
1.19 1.15 1.38 1.50 1.47 1.47 1.48 1.30 1.15 1.05 0.91 0.81 0.68 0.64 0.60 0.56 0.53 0.50 0.51 0.54 0.50 0.45 0.46 0.49 0.56 0.67 0.72 0.78 0.95 1.14 1.27 1.34 1.46 1.56 1.60 1.72 1.86 1.95 1.99 1.88 1.87 1.87 1.91 1.85
1.22 1.28 1.45 1.59 1.45 1.42 1.47 1.32 1.09 1.05 1.04 0.93 0.87 0.83 0.70 0.64 0.65 0.57 0.50 0.47 0.42 0.41 0.42 0.50 0.54 0.61 0.68 0.73 0.86 1.03 1.25 1.39 1.58 1.63 1.68 1.78 1.85 1.96 1.98 1.95 1.85 1.73 1.65 1.60

GEFSCGP_prec_meanprecacc_204.txt.gz
Total_Precipitation_Accumulation
0.00 0.00 0.00 0.00 0.01 0.01 0.01 0.04 0.11 0.15 0.14 0.20 0.30 0.50 0.64 0.63 0.81 1.20 1.43 1.45 1.42 1.72 2.22 2.58 2.83 3.01 3.34 3.51 3.63 3.60 3.77 4.09 4.37 4.20 3.85 3.61 3.26 3.01 2.81 2.57 2.41 2.40 2.38 2.52
0.00 0.01 0.00 0.01 0.01 0.01 0.02 0.06 0.14 0.16 0.15 0.25 0.38 0.60 0.76 0.85 1.10 1.27 1.21 1.23 1.40 1.77 2.27 2.63 2.91 3.07 3.32 3.57 3.96 4.04 4.17 4.47 4.55 4.35 4.21 4.03 3.82 3.40 3.25 3.10 2.86 2.50 2.33 2.41
0.01 0.01 0.01 0.01 0.01 0.02 0.04 0.07 0.13 0.14 0.21 0.34 0.44 0.82 0.99 1.11 1.25 1.24 1.21 1.42 1.46 1.56 1.98 2.26 2.38 2.59 2.77 2.89 3.11 3.37 3.81 4.28 4.39 4.43 4.35 4.25 4.20 3.66 3.36 3.18 2.92 2.59 2.36 2.29
0.01 0.01 0.01 0.02 0.02 0.02 0.06 0.06 0.06 0.10 0.19 0.45 0.52 1.04 1.25 1.45 1.54 1.34 1.31 1.28 1.30 1.56 1.89 1.92 1.79 1.94 2.20 2.19 2.48 2.85 3.27 3.58 3.78 3.90 3.86 3.82 3.67 3.41 3.30 3.16 2.76 2.47 2.27 2.20
0.02 0.02 0.02 0.04 0.03 0.03 0.05 0.04 0.07 0.11 0.19 0.41 0.46 0.81 1.29 1.66 1.78 1.40 1.28 1.19 1.29 1.55 1.61 1.58 1.60 1.71 1.88 2.05 2.36 2.64 2.90 3.15 3.30 3.35 3.37 3.40 3.23 3.10 3.05 2.91 2.61 2.32 2.16 2.06
0.02 0.04 0.04 0.03 0.03 0.04 0.04 0.07 0.13 0.20 0.37 0.71 0.61 0.71 1.21 1.55 1.41 1.21 1.17 1.00 1.10 1.33 1.43 1.49 1.58 1.71 1.84 2.13 2.48 2.73 2.91 3.09 3.13 2.89 2.76 2.73 2.73 2.73 2.63 2.44 2.23 2.01 1.89 1.80
0.13 0.10 0.07 0.05 0.06 0.07 0.08 0.17 0.56 0.92 1.24 1.14 0.72 0.82 1.39 1.26 0.91 0.84 0.93 0.92 0.94 1.01 1.16 1.28 1.46 1.67 1.84 1.94 2.02 2.36 2.68 2.87 2.81 2.57 2.39 2.28 2.34 2.39 2.32 2.15 2.06 1.94 1.72 1.58
0.28 0.25 0.13 0.09 0.12 0.13 0.13 0.24 0.69 0.95 0.99 0.97 0.78 1.17 1.60 1.20 0.81 0.67 0.77 0.79 0.70 0.66 0.64 0.73 0.91 1.02 1.11 1.13 1.17 1.30 1.51 1.74 1.82 1.74 1.74 1.74 1.77 1.78 1.77 1.86 1.77 1.75 1.62 1.48
0.16 0.15 0.10 0.12 0.17 0.18 0.24 0.28 0.29 0.49 0.68 1.01 1.02 1.19 1.21 0.96 0.78 0.73 0.83 0.77 0.61 0.55 0.50 0.57 0.67 0.68 0.77 0.81 0.85 1.00 1.19 1.34 1.38 1.38 1.39 1.41 1.39 1.43 1.46 1.48 1.44 1.45 1.46 1.39
0.10 0.10 0.10 0.11 0.15 0.18 0.20 0.28 0.42 0.67 0.90 1.02 1.09 1.36 1.49 1.32 1.08 0.96 0.92 0.78 0.58 0.48 0.44 0.49 0.58 0.59 0.69 0.83 0.99 1.14 1.24 1.27 1.24 1.25 1.23 1.14 1.23 1.24 1.28 1.23 1.16 1.16 1.19 1.22
0.08 0.09 0.12 0.18 0.22 0.22 0.23 0.30 0.45 0.62 0.69 0.87 1.20 1.28 1.00 0.94 0.97 1.05 1.06 0.88 0.61 0.46 0.42 0.45 0.54 0.59 0.66 0.79 0.92 1.06 1.17 1.26 1.20 1.14 1.17 1.18 1.19 1.19 1.17 1.13 1.05 1.08 1.11 1.12
0.09 0.11 0.16 0.24 0.21 0.16 0.22 0.32 0.47 0.70 0.76 0.80 0.93 0.99 0.58 0.57 0.68 0.81 0.81 0.65 0.48 0.41 0.40 0.45 0.50 0.52 0.62 0.74 0.83 0.83 0.90 1.05 1.06 1.05 1.14 1.29 1.26 1.21 1.11 1.01 0.96 0.99 1.03 1.04
0.15 0.15 0.27 0.53 0.49 0.26 0.25 0.25 0.35 0.49 0.60 0.68 0.85 0.96 0.57 0.55 0.68 0.75 0.71 0.57 0.49 0.47 0.48 0.53 0.52 0.49 0.55 0.65 0.72 0.73 0.80 0.92 1.01 1.04 1.14 1.25 1.19 1.13 1.01 0.90 0.92 0.93 0.93 0.98
0.13 0.14 0.24 0.61 0.65 0.43 0.31 0.27 0.31 0.43 0.54 0.51 0.49 0.65 0.63 0.62 0.76 0.76 0.73 0.64 0.61 0.52 0.52 0.59 0.64 0.56 0.54 0.58 0.61 0.62 0.74 0.90 0.93 0.93 0.98 1.02 0.96 0.92 0.93 0.92 0.89 0.86 0.89 0.93
0.13 0.17 0.17 0.26 0.35 0.38 0.37 0.30 0.26 0.29 0.33 0.42 0.43 0.57 0.69 0.69 0.73 0.66 0.61 0.60 0.63 0.56 0.48 0.50 0.49 0.47 0.48 0.50 0.52 0.58 0.61 0.70 0.81 0.87 0.88 0.90 0.92 0.91 0.89 0.86 0.81 0.80 0.81 0.76
0.20 0.24 0.22 0.30 0.36 0.38 0.39 0.35 0.28 0.24 0.25 0.29 0.36 0.50 0.54 0.61 0.61 0.60 0.53 0.51 0.56 0.46 0.38 0.38 0.33 0.30 0.33 0.39 0.43 0.49 0.51 0.58 0.66 0.69 0.70 0.83 0.93 0.90 0.87 0.80 0.75 0.74 0.75 0.80
0.30 0.33 0.33 0.37 0.44 0.52 0.54 0.34 0.31 0.31 0.28 0.39 0.58 0.60 0.54 0.71 0.65 0.55 0.48 0.42 0.38 0.36 0.33 0.29 0.24 0.23 0.27 0.33 0.40 0.44 0.51 0.54 0.60 0.64 0.66 0.67 0.78 0.84 0.81 0.73 0.70 0.71 0.75 0.82
0.36 0.50 0.52 0.49 0.65 0.79 0.62 0.34 0.29 0.34 0.31 0.30 0.41 0.44 0.46 0.69 0.67 0.51 0.42 0.39 0.34 0.32 0.30 0.26 0.26 0.26 0.31 0.37 0.42 0.51 0.56 0.58 0.61 0.69 0.73 0.69 0.69 0.77 0.80 0.76 0.72 0.76 0.80 0.82
0.31 0.49 0.56 0.61 0.74 0.75 0.60 0.47 0.41 0.46 0.50 0.33 0.36 0.40 0.41 0.48 0.54 0.56 0.41 0.41 0.43 0.36 0.35 0.32 0.29 0.31 0.39 0.43 0.47 0.58 0.60 0.63 0.68 0.72 0.75 0.72 0.70 0.75 0.79 0.79 0.82 0.88 0.93 0.86
0.40 0.52 0.65 0.62 0.76 0.91 0.73 0.56 0.47 0.52 0.89 0.56 0.39 0.35 0.38 0.44 0.65 0.72 0.50 0.39 0.36 0.34 0.38 0.41 0.40 0.45 0.49 0.52 0.61 0.71 0.76 0.81 0.85 0.80 0.76 0.74 0.78 0.82 0.85 0.93 1.06 1.12 1.14 1.07
0.79 0.82 0.80 0.75 0.80 0.79 0.70 0.55 0.50 0.88 1.07 0.62 0.48 0.44 0.46 0.48 0.57 0.58 0.49 0.42 0.38 0.40 0.46 0.56 0.64 0.72 0.76 0.69 0.76 0.86 0.96 1.00 0.97 0.98 0.96 0.92 0.95 1.03 1.10 1.25 1.35 1.41 1.37 1.41
1.02 1.03 0.99 0.97 1.10 1.10 0.81 0.77 0.90 1.00 0.89 0.72 0.60 0.57 0.51 0.49 0.46 0.48 0.47 0.48 0.44 0.45 0.53 0.60 0.67 0.76 0.84 0.91 0.98 1.04 1.05 1.08 1.15 1.15 1.16 1.18 1.24 1.14 1.15 1.37 1.46 1.57 1.66 1.64
1.00 1.03 1.05 1.09 1.13 1.00 0.90 1.01 1.05 0.93 0.96 0.89 0.73 0.70 0.63 0.58 0.48 0.43 0.45 0.47 0.49 0.51 0.55 0.61 0.63 0.69 0.83 0.94 1.04 1.19 1.25 1.23 1.29 1.35 1.35 1.39 1.43 1.47 1.49 1.61 1.67 1.71 1.73 1.70
1.08 0.96 1.09 1.21 1.25 1.16 1.15 1.12 1.08 1.04 1.01 0.91 0.74 0.72 0.68 0.61 0.52 0.51 0.50 0.53 0.55 0.56 0.56 0.57 0.62 0.67 0.79 0.96 1.15 1.29 1.33 1.29 1.38 1.48 1.48 1.58 1.71 1.75 1.77 1.86 1.86 1.86 1.85 1.80
1.20 1.17 1.40 1.52 1.49 1.49 1.50 1.32 1.16 1.06 0.92 0.82 0.69 0.67 0.63 0.59 0.56 0.52 0.53 0.56 0.53 0.50 0.51 0.54 0.60 0.70 0.74 0.81 0.98 1.17 1.30 1.37 1.50 1.60 1.64 1.75 1.89 1.97 2.02 1.91 1.90 1.92 1.97 1.91
1.23 1.29 1.48 1.63 1.48 1.44 1.50 1.34 1.10 1.06 1.05 0.96 0.92 0.88 0.77 0.69 0.69 0.61 0.53 0.51 0.48 0.46 0.47 0.54 0.57 0.64 0.71 0.75 0.88 1.06 1.27 1.42 1.62 1.67 1.72 1.81 1.89 1.99 2.01 1.98 1.88 1.77 1.69 1.65

GEFSCGP_prec_meanprecacc_210.txt.gz
Total_Precipitation_Accumulation
0.00 0.00 0.00 0.00 0.01 0.01 0.01 0.04 0.11 0.15 0.14 0.20 0.30 0.50 0.67 0.66 0.82 1.21 1.44 1.45 1.43 1.73 2.22 2.58 2.83 3.01 3.34 3.51 3.64 3.61 3.78 4.12 4.41 4.25 3.90 3.65 3.29 3.03 2.82 2.59 2.43 2.42 2.39 2.54
0.00 0.01 0.00 0.01 0.01 0.01 0.02 0.06 0.14 0.16 0.15 0.25 0.38 0.60 0.77 0.89 1.13 1.27 1.21 1.23 1.40 1.78 2.28 2.64 2.91 3.07 3.33 3.58 3.97 4.05 4.19 4.49 4.57 4.39 4.25 4.06 3.85 3.42 3.28 3.14 2.90 2.52 2.35 2.43
0.01 0.01 0.01 0.01 0.01 0.02 0.04 0.07 0.13 0.14 0.21 0.34 0.44 0.82 1.00 1.13 1.27 1.25 1.21 1.42 1.46 1.56 1.99 2.26 2.38 2.59 2.77 2.89 3.12 3.38 3.82 4.29 4.40 4.45 4.37 4.28 4.23 3.69 3.40 3.21 2.95 2.62 2.38 2.31
0.01 0.01 0.01 0.02 0.02 0.02 0.06 0.06 0.06 0.10 0.19 0.45 0.52 1.04 1.27 1.47 1.54 1.35 1.31 1.28 1.30 1.56 1.90 1.92 1.79 1.94 2.20 2.19 2.49 2.86 3.27 3.59 3.79 3.91 3.88 3.84 3.70 3.45 3.34 3.21 2.80 2.52 2.31 2.24
0.02 0.02 0.02 0.04 0.03 0.03 0.05 0.04 0.07 0.11 0.19 0.41 0.46 0.81 1.30 1.69 1.81 1.41 1.28 1.19 1.29 1.56 1.61 1.58 1.60 1.71 1.88 2.05 2.36 2.65 2.91 3.17 3.32 3.37 3.40 3.44 3.27 3.15 3.10 2.97 2.66 2.38 2.22 2.10
0.02 0.04 0.04 0.03 0.03 0.04 0.04 0.07 0.13 0.20 0.37 0.71 0.61 0.72 1.23 1.62 1.46 1.24 1.17 1.00 1.10 1.33 1.43 1.49 1.58 1.71 1.84 2.13 2.48 2.74 2.91 3.10 3.15 2.92 2.79 2.77 2.78 2.79 2.72 2.54 2.33 2.07 1.95 1.85
0.13 0.10 0.07 0.05 0.06 0.07 0.08 0.17 0.56 0.92 1.24 1.14 0.72 0.82 1.40 1.28 0.93 0.85 0.94 0.92 0.94 1.01 1.16 1.28 1.46 1.67 1.84 1.94 2.02 2.36 2.69 2.87 2.82 2.58 2.41 2.32 2.39 2.46 2.39 2.23 2.15 2.01 1.78 1.63
0.28 0.25 0.13 0.09 0.12 0.13 0.13 0.24 0.69 0.95 1.00 0.99 0.79 1.18 1.60 1.20 0.82 0.68 0.78 0.79 0.70 0.66 0.64 0.73 0.91 1.03 1.12 1.14 1.18 1.31 1.52 1.74 1.83 1.75 1.76 1.78 1.81 1.83 1.81 1.94 1.85 1.82 1.68 1.53
0.16 0.15 0.10 0.12 0.17 0.18 0.24 0.28 0.30 0.50 0.69 1.03 1.03 1.20 1.22 0.97 0.78 0.73 0.84 0.78 0.61 0.55 0.51 0.57 0.68 0.69 0.79 0.82 0.87 1.00 1.19 1.35 1.39 1.40 1.41 1.44 1.43 1.46 1.51 1.55 1.51 1.51 1.53 1.45
0.10 0.10 0.10 0.11 0.15 0.18 0.20 0.28 0.43 0.68 0.91 1.05 1.11 1.37 1.50 1.34 1.10 0.97 0.93 0.79 0.59 0.48 0.44 0.49 0.58 0.60 0.71 0.86 1.00 1.14 1.25 1.27 1.25 1.26 1.25 1.16 1.26 1.28 1.34 1.30 1.23 1.23 1.28 1.28
0.08 0.09 0.13 0.18 0.22 0.22 0.23 0.30 0.46 0.63 0.70 0.89 1.22 1.31 1.02 0.97 0.99 1.06 1.06 0.88 0.61 0.46 0.42 0.46 0.56 0.61 0.68 0.81 0.95 1.08 1.18 1.27 1.22 1.16 1.19 1.22 1.23 1.23 1.23 1.19 1.11 1.16 1.21 1.19
0.09 0.11 0.17 0.24 0.21 0.16 0.22 0.32 0.47 0.71 0.77 0.80 0.94 1.02 0.60 0.59 0.71 0.81 0.81 0.65 0.48 0.42 0.41 0.47 0.52 0.57 0.66 0.77 0.85 0.86 0.93 1.09 1.10 1.09 1.17 1.32 1.31 1.27 1.17 1.08 1.04 1.07 1.09 1.10
0.15 0.15 0.27 0.54 0.49 0.26 0.25 0.25 0.35 0.49 0.60 0.68 0.87 1.00 0.60 0.57 0.71 0.75 0.72 0.58 0.49 0.48 0.50 0.56 0.54 0.52 0.57 0.67 0.75 0.76 0.83 0.96 1.05 1.08 1.17 1.28 1.24 1.19 1.07 0.97 0.99 0.99 0.98 1.03
0.13 0.14 0.24 0.62 0.66 0.43 0.31 0.27 0.31 0.43 0.54 0.52 0.51 0.68 0.67 0.66 0.77 0.76 0.73 0.64 0.61 0.54 0.55 0.64 0.67 0.58 0.56 0.60 0.63 0.65 0.78 0.94 0.96 0.96 1.02 1.08 1.03 0.99 0.98 0.97 0.94 0.91 0.94 1.00
0.13 0.17 0.17 0.27 0.37 0.40 0.37 0.30 0.26 0.29 0.33 0.43 0.46 0.60 0.74 0.74 0.74 0.66 0.61 0.61 0.63 0.57 0.50 0.54 0.51 0.49 0.50 0.51 0.53 0.59 0.62 0.73 0.84 0.91 0.94 0.97 1.00 1.00 0.97 0.92 0.86 0.86 0.87 0.83
0.20 0.24 0.22 0.30 0.38 0.41 0.40 0.36 0.28 0.24 0.25 0.30 0.37 0.52 0.57 0.64 0.63 0.61 0.53 0.51 0.56 0.46 0.40 0.40 0.35 0.31 0.34 0.40 0.44 0.50 0.52 0.60 0.71 0.72 0.76 0.90 1.00 0.97 0.95 0.85 0.81 0.80 0.81 0.87
0.31 0.33 0.33 0.37 0.44 0.54 0.56 0.35 0.31 0.32 0.28 0.39 0.59 0.65 0.60 0.75 0.68 0.55 0.49 0.43 0.39 0.36 0.34 0.30 0.25 0.24 0.28 0.34 0.41 0.45 0.52 0.57 0.63 0.67 0.70 0.73 0.84 0.90 0.86 0.77 0.74 0.77 0.81 0.88
0.36 0.51 0.53 0.49 0.65 0.80 0.63 0.36 0.30 0.35 0.33 0.31 0.43 0.48 0.53 0.73 0.69 0.53 0.43 0.40 0.34 0.32 0.31 0.27 0.26 0.26 0.32 0.38 0.43 0.53 0.59 0.61 0.63 0.72 0.76 0.74 0.74 0.82 0.84 0.80 0.77 0.83 0.88 0.91
0.31 0.50 0.57 0.62 0.76 0.77 0.61 0.48 0.42 0.47 0.52 0.34 0.38 0.41 0.43 0.49 0.55 0.58 0.42 0.44 0.45 0.37 0.36 0.32 0.30 0.32 0.40 0.45 0.48 0.59 0.62 0.66 0.71 0.74 0.77 0.75 0.74 0.79 0.83 0.83 0.87 0.94 1.00 0.94
0.40 0.53 0.67 0.64 0.79 0.94 0.76 0.58 0.47 0.54 0.92 0.57 0.40 0.36 0.39 0.45 0.68 0.75 0.50 0.41 0.38 0.35 0.39 0.42 0.41 0.46 0.51 0.54 0.63 0.73 0.79 0.84 0.87 0.83 0.78 0.77 0.82 0.88 0.91 0.98 1.13 1.19 1.21 1.13
0.80 0.83 0.81 0.77 0.83 0.85 0.74 0.56 0.51 0.91 1.12 0.64 0.49 0.45 0.47 0.50 0.59 0.61 0.50 0.42 0.39 0.42 0.48 0.58 0.66 0.74 0.78 0.70 0.78 0.89 0.99 1.03 1.01 1.02 0.99 0.95 0.98 1.09 1.17 1.32 1.43 1.48 1.45 1.49
1.05 1.06 1.01 0.99 1.13 1.15 0.83 0.79 0.94 1.04 0.91 0.73 0.61 0.58 0.52 0.49 0.47 0.50 0.50 0.51 0.46 0.47 0.55 0.63 0.70 0.78 0.86 0.93 1.01 1.06 1.08 1.12 1.20 1.20 1.20 1.22 1.28 1.17 1.20 1.44 1.53 1.65 1.74 1.71
1.02 1.06 1.08 1.13 1.18 1.04 0.93 1.05 1.09 0.96 0.99 0.91 0.75 0.71 0.64 0.59 0.49 0.45 0.48 0.52 0.55 0.53 0.57 0.65 0.70 0.75 0.86 0.97 1.08 1.24 1.31 1.29 1.33 1.40 1.42 1.46 1.50 1.53 1.56 1.67 1.74 1.78 1.80 1.77
1.11 0.97 1.13 1.27 1.30 1.20 1.18 1.14 1.11 1.07 1.04 0.93 0.76 0.74 0.69 0.62 0.53 0.52 0.53 0.56 0.57 0.59 0.58 0.61 0.71 0.76 0.83 0.99 1.19 1.35 1.39 1.35 1.44 1.56 1.58 1.67 1.80 1.82 1.83 1.93 1.94 1.94 1.94 1.89
1.23 1.20 1.44 1.59 1.54 1.53 1.54 1.35 1.18 1.07 0.93 0.84 0.72 0.71 0.65 0.61 0.58 0.55 0.56 0.59 0.56 0.53 0.56 0.60 0.66 0.76 0.79 0.85 1.03 1.22 1.36 1.44 1.55 1.65 1.70 1.83 1.97 2.06 2.09 1.98 2.00 2.03 2.08 2.01
1.25 1.33 1.54 1.72 1.55 1.50 1.56 1.36 1.11 1.07 1.07 0.99 0.95 0.92 0.81 0.74 0.73 0.64 0.56 0.54 0.51 0.51 0.55 0.63 0.65 0.69 0.76 0.80 0.92 1.09 1.31 1.47 1.67 1.72 1.77 1.87 1.96 2.08 2.08 2.05 1.95 1.84 1.76 1.71

GEFSCGP_prec_meanprecacc_216.txt.gz
Total_Precipitation_Accumulation
0.00 0.00 0.00 0.00 0.01 0.01 0.01 0.04 0.11 0.15 0.14 0.20 0.31 0.51 0.69 0.71 0.87 1.24 1.45 1.46 1.45 1.74 2.22 2.59 2.83 3.01 3.34 3.52 3.64 3.61 3.79 4.12 4.42 4.27 3.93 3.68 3.33 3.08 2.87 2.61 2.44 2.43 2.41 2.56
0.00 0.01 0.00 0.01 0.01 0.01 0.02 0.06 0.14 0.16 0.16 0.25 0.39 0.62 0.79 0.92 1.17 1.30 1.23 1.24 1.40 1.78 2.28 2.65 2.92 3.08 3.33 3.59 3.97 4.05 4.19 4.49 4.59 4.42 4.30 4.10 3.90 3.47 3.32 3.16 2.91 2.53 2.36 2.44
0.01 0.01 0.01 0.01 0.01 0.02 0.04 0.07 0.13 0.14 0.21 0.35 0.45 0.85 1.02 1.15 1.31 1.31 1.25 1.46 1.48 1.57 2.00 2.28 2.41 2.59 2.78 2.90 3.13 3.39 3.82 4.29 4.41 4.47 4.40 4.31 4.26 3.72 3.42 3.22 2.96 2.63 2.40 2.32
0.01 0.01 0.01 0.02 0.02 0.02 0.06 0.06 0.06 0.10 0.19 0.46 0.53 1.07 1.30 1.49 1.57 1.42 1.39 1.35 1.33 1.58 1.91 1.93 1.80 1.95 2.20 2.20 2.49 2.86 3.28 3.59 3.80 3.92 3.89 3.85 3.72 3.47 3.37 3.23 2.84 2.58 2.36 2.28
0.02 0.02 0.02 0.04 0.03 0.03 0.05 0.04 0.07 0.11 0.19 0.41 0.48 0.82 1.32 1.70 1.83 1.46 1.36 1.27 1.35 1.58 1.62 1.59 1.61 1.72 1.89 2.06 2.37 2.66 2.93 3.18 3.33 3.38 3.42 3.47 3.30 3.19 3.15 3.01 2.71 2.42 2.25 2.13
0.02 0.04 0.04 0.03 0.03 0.04 0.04 0.07 0.13 0.20 0.37 0.71 0.62 0.73 1.24 1.63 1.48 1.28 1.22 1.04 1.16 1.36 1.44 1.50 1.59 1.72 1.85 2.15 2.51 2.78 2.96 3.14 3.17 2.94 2.82 2.80 2.82 2.85 2.76 2.57 2.35 2.10 1.97 1.87
0.13 0.10 0.07 0.05 0.06 0.07 0.08 0.17 0.56 0.92 1.24 1.14 0.72 0.83 1.41 1.29 0.95 0.89 0.98 0.96 0.97 1.03 1.17 1.29 1.48 1.70 1.87 1.98 2.08 2.49 2.85 2.97 2.87 2.61 2.43 2.34 2.43 2.50 2.42 2.26 2.18 2.04 1.81 1.65
0.28 0.25 0.13 0.09 0.12 0.13 0.13 0.24 0.70 0.96 1.00 0.99 0.79 1.19 1.68 1.29 0.87 0.71 0.81 0.82 0.73 0.68 0.65 0.75 0.93 1.05 1.14 1.17 1.23 1.37 1.60 1.82 1.91 1.79 1.78 1.81 1.86 1.87 1.85 1.97 1.87 1.83 1.70 1.55
0.16 0.15 0.10 0.12 0.17 0.18 0.24 0.28 0.30 0.50 0.69 1.04 1.04 1.22 1.29 1.05 0.83 0.78 0.87 0.80 0.63 0.58 0.54 0.61 0.71 0.72 0.81 0.86 0.91 1.05 1.25 1.40 1.43 1.42 1.44 1.48 1.47 1.50 1.54 1.58 1.53 1.52 1.55 1.47
0.10 0.10 0.11 0.11 0.15 0.18 0.20 0.28 0.43 0.68 0.91 1.05 1.11 1.39 1.53 1.37 1.13 0.99 0.94 0.81 0.61 0.50 0.48 0.56 0.66 0.66 0.77 0.92 1.04 1.17 1.28 1.31 1.26 1.29 1.29 1.20 1.30 1.32 1.37 1.33 1.25 1.25 1.31 1.31
0.08 0.10 0.13 0.18 0.22 0.22 0.23 0.30 0.46 0.64 0.70 0.90 1.25 1.34 1.05 1.01 1.02 1.08 1.09 0.91 0.63 0.48 0.44 0.51 0.64 0.70 0.76 0.88 1.01 1.13 1.23 1.30 1.25 1.20 1.24 1.27 1.29 1.28 1.27 1.22 1.14 1.19 1.24 1.23
0.09 0.11 0.17 0.25 0.21 0.16 0.22 0.32 0.47 0.71 0.77 0.81 0.95 1.05 0.63 0.62 0.74 0.85 0.86 0.69 0.51 0.44 0.43 0.51 0.61 0.65 0.76 0.84 0.90 0.91 0.99 1.15 1.16 1.16 1.24 1.37 1.35 1.32 1.22 1.11 1.07 1.10 1.12 1.13
0.15 0.15 0.27 0.54 0.50 0.27 0.25 0.25 0.35 0.49 0.60 0.69 0.89 1.03 0.62 0.60 0.76 0.80 0.76 0.60 0.53 0.52 0.53 0.60 0.62 0.61 0.69 0.76 0.80 0.80 0.88 1.01 1.13 1.16 1.23 1.33 1.29 1.24 1.11 1.02 1.03 1.03 1.04 1.08
0.13 0.14 0.24 0.62 0.67 0.44 0.32 0.28 0.31 0.44 0.55 0.52 0.52 0.69 0.70 0.70 0.83 0.81 0.77 0.67 0.66 0.58 0.59 0.68 0.76 0.69 0.67 0.68 0.68 0.69 0.82 0.99 1.01 1.01 1.07 1.12 1.07 1.03 1.04 1.04 1.00 0.97 1.02 1.07
0.13 0.17 0.17 0.27 0.37 0.40 0.38 0.30 0.27 0.30 0.33 0.43 0.46 0.61 0.76 0.81 0.84 0.73 0.67 0.66 0.68 0.62 0.54 0.58 0.55 0.52 0.53 0.56 0.58 0.62 0.65 0.78 0.89 0.95 0.98 1.03 1.07 1.06 1.03 0.99 0.92 0.93 0.94 0.88
0.20 0.24 0.22 0.30 0.38 0.41 0.41 0.36 0.30 0.25 0.26 0.31 0.38 0.55 0.60 0.71 0.72 0.68 0.60 0.59 0.61 0.51 0.44 0.43 0.37 0.33 0.37 0.43 0.47 0.52 0.54 0.64 0.75 0.77 0.82 0.96 1.06 1.03 1.00 0.90 0.86 0.85 0.86 0.94
0.31 0.33 0.33 0.38 0.45 0.55 0.58 0.36 0.32 0.32 0.29 0.41 0.63 0.70 0.64 0.81 0.81 0.68 0.57 0.49 0.44 0.40 0.38 0.34 0.28 0.27 0.32 0.38 0.44 0.49 0.58 0.62 0.67 0.71 0.75 0.79 0.88 0.93 0.89 0.80 0.79 0.81 0.86 0.95
0.36 0.51 0.53 0.50 0.66 0.82 0.67 0.39 0.31 0.36 0.35 0.36 0.49 0.52 0.57 0.78 0.83 0.63 0.49 0.45 0.39 0.37 0.35 0.32 0.32 0.33 0.39 0.42 0.48 0.60 0.72 0.74 0.72 0.77 0.80 0.77 0.78 0.86 0.88 0.84 0.83 0.90 0.95 0.99
0.31 0.50 0.58 0.63 0.77 0.79 0.66 0.52 0.45 0.49 0.56 0.40 0.43 0.47 0.46 0.51 0.59 0.63 0.46 0.48 0.50 0.42 0.40 0.38 0.37 0.41 0.47 0.50 0.54 0.67 0.73 0.78 0.78 0.79 0.80 0.78 0.78 0.83 0.87 0.86 0.92 1.02 1.09 1.03
0.41 0.53 0.67 0.64 0.81 0.96 0.78 0.61 0.51 0.58 0.96 0.62 0.43 0.40 0.43 0.47 0.70 0.79 0.55 0.45 0.44 0.44 0.47 0.49 0.47 0.52 0.58 0.62 0.72 0.81 0.86 0.91 0.94 0.89 0.85 0.86 0.92 0.94 0.95 1.04 1.21 1.29 1.30 1.24
0.81 0.84 0.82 0.78 0.84 0.86 0.75 0.59 0.54 0.97 1.19 0.69 0.53 0.46 0.49 0.52 0.61 0.64 0.54 0.46 0.44 0.50 0.60 0.67 0.73 0.82 0.86 0.79 0.87 0.97 1.05 1.09 1.07 1.09 1.09 1.08 1.14 1.19 1.25 1.41 1.54 1.60 1.59 1.65
1.05 1.07 1.01 1.00 1.16 1.18 0.85 0.82 0.98 1.14 1.01 0.79 0.65 0.60 0.53 0.51 0.48 0.51 0.52 0.54 0.53 0.57 0.71 0.76 0.79 0.89 0.97 1.04 1.12 1.15 1.16 1.19 1.27 1.29 1.30 1.33 1.42 1.32 1.34 1.59 1.68 1.82 1.96 1.94
1.03 1.07 1.10 1.15 1.20 1.07 0.96 1.09 1.14 1.02 1.06 0.99 0.80 0.74 0.66 0.61 0.51 0.47 0.51 0.57 0.62 0.63 0.67 0.74 0.80 0.89 1.02 1.11 1.22 1.36 1.38 1.35 1.41 1.50 1.53 1.61 1.74 1.84 1.80 1.88 1.94 1.97 1.99 1.97
1.13 0.99 1.14 1.31 1.35 1.25 1.26 1.22 1.18 1.13 1.09 0.97 0.80 0.78 0.71 0.64 0.55 0.54 0.57 0.59 0.62 0.64 0.62 0.64 0.75 0.90 1.02 1.14 1.33 1.53 1.55 1.45 1.54 1.68 1.70 1.81 1.96 2.02 2.04 2.13 2.13 2.13 2.15 2.18
1.27 1.23 1.48 1.66 1.63 1.61 1.62 1.46 1.25 1.11 0.97 0.87 0.75 0.74 0.68 0.64 0.61 0.57 0.57 0.61 0.58 0.56 0.59 0.63 0.70 0.85 0.96 0.96 1.11 1.35 1.52 1.56 1.69 1.79 1.84 1.97 2.13 2.25 2.30 2.19 2.21 2.25 2.26 2.18
1.30 1.37 1.59 1.78 1.63 1.59 1.65 1.45 1.19 1.13 1.11 1.02 0.98 0.95 0.83 0.76 0.74 0.66 0.58 0.56 0.53 0.53 0.58 0.68 0.70 0.76 0.85 0.89 1.01 1.18 1.42 1.58 1.80 1.86 1.90 2.01 2.11 2.25 2.24 2.21 2.09 1.97 1.86 1.81

GEFSCGP_prec_meanprecacc_222.txt.gz
Total_Precipitation_Accumulation
0.00 0.00 0.00 0.00 0.01 0.01 0.01 0.04 0.11 0.15 0.14 0.21 0.31 0.52 0.70 0.72 0.88 1.24 1.45 1.46 1.45 1.74 2.23 2.59 2.83 3.01 3.35 3.52 3.64 3.61 3.79 4.13 4.42 4.27 3.94 3.70 3.36 3.10 2.88 2.63 2.45 2.46 2.44 2.59
0.00 0.01 0.00 0.01 0.01 0.01 0.02 0.06 0.14 0.16 0.16 0.26 0.40 0.63 0.80 0.93 1.18 1.31 1.24 1.25 1.41 1.79 2.28 2.65 2.92 3.08 3.33 3.59 3.98 4.06 4.20 4.50 4.59 4.43 4.31 4.12 3.92 3.50 3.34 3.17 2.93 2.57 2.39 2.46
0.01 0.01 0.01 0.01 0.01 0.02 0.04 0.07 0.13 0.14 0.21 0.36 0.46 0.86 1.04 1.16 1.32 1.32 1.26 1.47 1.49 1.58 2.00 2.28 2.41 2.60 2.78 2.90 3.13 3.39 3.83 4.30 4.42 4.48 4.41 4.32 4.28 3.73 3.44 3.25 3.00 2.67 2.43 2.36
0.01 0.01 0.01 0.02 0.02 0.02 0.06 0.06 0.06 0.10 0.19 0.46 0.53 1.08 1.31 1.50 1.58 1.43 1.40 1.36 1.34 1.58 1.91 1.93 1.80 1.95 2.21 2.20 2.50 2.87 3.29 3.60 3.81 3.93 3.90 3.87 3.74 3.49 3.40 3.28 2.88 2.61 2.39 2.32
0.02 0.02 0.02 0.04 0.03 0.03 0.05 0.04 0.07 0.11 0.19 0.41 0.48 0.82 1.32 1.71 1.83 1.46 1.37 1.28 1.35 1.58 1.63 1.59 1.61 1.72 1.89 2.06 2.37 2.67 2.95 3.20 3.35 3.41 3.45 3.50 3.33 3.22 3.18 3.04 2.73 2.44 2.28 2.16
0.02 0.04 0.04 0.03 0.03 0.04 0.04 0.07 0.13 0.20 0.37 0.71 0.62 0.73 1.24 1.63 1.48 1.28 1.23 1.05 1.16 1.36 1.45 1.51 1.59 1.72 1.85 2.16 2.51 2.79 2.98 3.17 3.21 2.98 2.86 2.83 2.84 2.87 2.79 2.59 2.37 2.11 2.00 1.90
0.13 0.10 0.07 0.05 0.06 0.07 0.08 0.17 0.56 0.93 1.24 1.14 0.72 0.83 1.41 1.29 0.95 0.89 0.99 0.97 0.97 1.04 1.18 1.30 1.49 1.71 1.88 1.98 2.09 2.51 2.90 3.04 2.93 2.67 2.48 2.38 2.45 2.53 2.43 2.27 2.19 2.05 1.84 1.69
0.28 0.25 0.13 0.09 0.12 0.13 0.13 0.24 0.70 0.96 1.00 0.99 0.79 1.19 1.68 1.29 0.87 0.71 0.81 0.83 0.74 0.69 0.67 0.76 0.94 1.06 1.15 1.18 1.24 1.39 1.66 1.90 1.99 1.86 1.83 1.85 1.89 1.92 1.88 1.99 1.88 1.85 1.74 1.59
0.16 0.15 0.10 0.12 0.17 0.18 0.24 0.28 0.30 0.50 0.69 1.04 1.04 1.22 1.29 1.05 0.84 0.78 0.88 0.81 0.65 0.60 0.56 0.62 0.72 0.73 0.83 0.88 0.94 1.08 1.29 1.49 1.52 1.49 1.49 1.53 1.54 1.56 1.57 1.61 1.55 1.54 1.57 1.49
0.10 0.10 0.11 0.11 0.15 0.18 0.20 0.28 0.43 0.68 0.91 1.05 1.11 1.39 1.53 1.37 1.14 0.99 0.95 0.82 0.62 0.52 0.50 0.57 0.67 0.67 0.78 0.94 1.10 1.23 1.32 1.38 1.36 1.33 1.32 1.24 1.34 1.35 1.40 1.36 1.28 1.27 1.33 1.34
0.08 0.10 0.13 0.18 0.22 0.22 0.23 0.30 0.46 0.64 0.70 0.90 1.25 1.34 1.06 1.01 1.03 1.08 1.09 0.92 0.66 0.51 0.46 0.52 0.65 0.71 0.79 0.91 1.04 1.17 1.26 1.33 1.29 1.24 1.28 1.31 1.32 1.32 1.30 1.25 1.17 1.22 1.27 1.27
0.09 0.11 0.17 0.25 0.22 0.16 0.22 0.32 0.48 0.71 0.77 0.81 0.95 1.05 0.64 0.63 0.75 0.85 0.88 0.72 0.54 0.47 0.45 0.52 0.62 0.67 0.79 0.89 0.94 0.95 1.03 1.19 1.21 1.21 1.30 1.42 1.39 1.36 1.26 1.15 1.10 1.14 1.17 1.18
0.15 0.15 0.27 0.54 0.50 0.27 0.25 0.25 0.36 0.49 0.60 0.69 0.89 1.03 0.63 0.61 0.77 0.81 0.77 0.62 0.55 0.54 0.55 0.62 0.65 0.66 0.73 0.80 0.84 0.84 0.92 1.05 1.18 1.23 1.29 1.38 1.34 1.29 1.16 1.07 1.09 1.10 1.11 1.14
0.13 0.14 0.24 0.62 0.67 0.44 0.32 0.28 0.31 0.44 0.55 0.52 0.52 0.70 0.71 0.72 0.85 0.83 0.77 0.67 0.67 0.60 0.62 0.71 0.79 0.72 0.70 0.71 0.73 0.74 0.86 1.03 1.06 1.06 1.12 1.17 1.13 1.09 1.09 1.09 1.05 1.02 1.08 1.12
0.13 0.17 0.17 0.27 0.37 0.41 0.38 0.30 0.27 0.30 0.33 0.43 0.46 0.61 0.77 0.82 0.85 0.74 0.68 0.67 0.69 0.64 0.57 0.60 0.57 0.56 0.57 0.58 0.61 0.66 0.69 0.81 0.94 1.01 1.04 1.10 1.12 1.11 1.08 1.04 0.97 0.98 1.00 0.93
0.20 0.24 0.22 0.30 0.38 0.41 0.41 0.36 0.30 0.25 0.26 0.31 0.38 0.55 0.61 0.72 0.73 0.70 0.61 0.60 0.63 0.52 0.45 0.44 0.39 0.36 0.40 0.45 0.50 0.55 0.58 0.67 0.80 0.83 0.89 1.05 1.12 1.08 1.06 0.96 0.91 0.89 0.91 1.00
0.31 0.33 0.33 0.38 0.46 0.55 0.58 0.36 0.32 0.32 0.29 0.41 0.63 0.71 0.65 0.82 0.82 0.70 0.58 0.50 0.46 0.42 0.39 0.35 0.30 0.30 0.35 0.41 0.48 0.54 0.62 0.68 0.73 0.76 0.80 0.85 0.95 1.00 0.96 0.87 0.84 0.86 0.93 1.05
0.36 0.51 0.53 0.50 0.66 0.82 0.67 0.39 0.31 0.36 0.36 0.36 0.49 0.53 0.58 0.79 0.84 0.64 0.50 0.46 0.41 0.38 0.36 0.34 0.35 0.38 0.47 0.49 0.56 0.69 0.80 0.81 0.79 0.85 0.86 0.82 0.85 0.93 0.97 0.92 0.89 0.96 1.03 1.05
0.31 0.50 0.58 0.63 0.77 0.79 0.66 0.52 0.45 0.49 0.56 0.40 0.43 0.48 0.47 0.52 0.60 0.64 0.47 0.49 0.51 0.44 0.43 0.41 0.41 0.46 0.60 0.59 0.62 0.76 0.81 0.85 0.87 0.88 0.88 0.86 0.87 0.93 0.96 0.94 1.00 1.10 1.20 1.12
0.41 0.53 0.67 0.64 0.81 0.97 0.78 0.61 0.52 0.58 0.97 0.62 0.44 0.41 0.45 0.49 0.71 0.80 0.55 0.45 0.45 0.45 0.49 0.53 0.52 0.57 0.65 0.67 0.78 0.88 0.93 0.99 1.02 0.96 0.92 0.96 1.04 1.06 1.07 1.15 1.32 1.42 1.45 1.38
0.81 0.84 0.82 0.78 0.84 0.87 0.76 0.59 0.54 0.97 1.19 0.70 0.54 0.47 0.50 0.52 0.62 0.65 0.55 0.47 0.44 0.50 0.61 0.71 0.81 0.87 0.91 0.84 0.93 1.04 1.14 1.19 1.17 1.20 1.21 1.22 1.32 1.38 1.41 1.57 1.70 1.76 1.76 1.86
1.06 1.07 1.01 1.00 1.16 1.18 0.85 0.82 0.99 1.14 1.02 0.80 0.66 0.61 0.54 0.51 0.49 0.52 0.53 0.55 0.54 0.58 0.73 0.80 0.88 0.94 1.00 1.08 1.18 1.22 1.24 1.30 1.40 1.43 1.48 1.53 1.65 1.57 1.57 1.80 1.89 2.02 2.15 2.11
1.04 1.07 1.10 1.15 1.21 1.08 0.97 1.10 1.14 1.03 1.07 1.00 0.81 0.75 0.68 0.62 0.53 0.49 0.53 0.58 0.63 0.65 0.69 0.78 0.86 0.94 1.06 1.16 1.27 1.42 1.46 1.46 1.55 1.66 1.72 1.83 1.95 2.06 2.08 2.17 2.22 2.23 2.25 2.21
1.15 1.00 1.15 1.31 1.36 1.26 1.27 1.24 1.20 1.15 1.11 0.99 0.82 0.80 0.73 0.66 0.57 0.56 0.59 0.61 0.63 0.66 0.64 0.67 0.79 0.94 1.07 1.20 1.39 1.61 1.62 1.54 1.63 1.79 1.80 1.91 2.06 2.14 2.20 2.33 2.35 2.33 2.31 2.32
1.28 1.24 1.49 1.67 1.65 1.63 1.64 1.48 1.28 1.15 1.01 0.91 0.80 0.77 0.70 0.66 0.63 0.58 0.59 0.62 0.59 0.57 0.59 0.64 0.72 0.88 1.00 1.02 1.20 1.43 1.60 1.67 1.78 1.87 1.92 2.05 2.20 2.32 2.39 2.29 2.33 2.36 2.37 2.30
1.32 1.39 1.60 1.79 1.65 1.61 1.68 1.49 1.23 1.18 1.17 1.07 1.03 1.00 0.88 0.79 0.77 0.67 0.59 0.57 0.54 0.54 0.59 0.68 0.71 0.78 0.87 0.94 1.09 1.26 1.49 1.66 1.92 1.96 2.01 2.12 2.20 2.32 2.33 2.31 2.21 2.08 1.97 1.91

GEFSCGP_prec_meanprecacc_228.txt.gz
Total_Precipitation_Accumulation
0.00 0.00 0.00 0.00 0.01 0.01 0.01 0.04 0.11 0.15 0.14 0.21 0.31 0.52 0.70 0.72 0.88 1.25 1.46 1.46 1.45 1.74 2.23 2.59 2.83 3.01 3.35 3.52 3.64 3.61 3.79 4.14 4.44 4.30 3.96 3.72 3.39 3.13 2.91 2.66 2.48 2.50 2.47 2.62
0.00 0.01 0.00 0.01 0.01 0.01 0.02 0.06 0.14 0.16 0.16 0.26 0.40 0.63 0.80 0.93 1.18 1.32 1.24 1.25 1.41 1.79 2.28 2.65 2.93 3.08 3.33 3.59 3.98 4.06 4.20 4.50 4.60 4.44 4.32 4.14 3.95 3.52 3.36 3.19 2.95 2.60 2.42 2.50
0.01 0.01 0.01 0.01 0.01 0.02 0.04 0.07 0.13 0.14 0.21 0.36 0.46 0.86 1.04 1.16 1.32 1.32 1.26 1.47 1.49 1.58 2.00 2.28 2.41 2.60 2.78 2.91 3.14 3.40 3.84 4.31 4.43 4.49 4.41 4.33 4.30 3.76 3.47 3.29 3.04 2.70 2.45 2.39
0.01 0.01 0.01 0.02 0.02 0.02 0.06 0.06 0.06 0.10 0.19 0.46 0.53 1.08 1.31 1.50 1.58 1.43 1.40 1.36 1.34 1.58 1.91 1.93 1.80 1.95 2.21 2.20 2.50 2.87 3.29 3.61 3.82 3.94 3.91 3.88 3.77 3.53 3.44 3.32 2.92 2.65 2.43 2.35
0.02 0.02 0.02 0.04 0.03 0.03 0.05 0.04 0.07 0.11 0.19 0.41 0.48 0.82 1.32 1.71 1.83 1.46 1.37 1.28 1.35 1.58 1.63 1.59 1.62 1.72 1.89 2.06 2.37 2.67 2.95 3.20 3.36 3.44 3.48 3.51 3.35 3.25 3.21 3.07 2.77 2.49 2.32 2.19
0.02 0.04 0.04 0.03 0.03 0.04 0.04 0.07 0.13 0.20 0.37 0.71 0.62 0.73 1.24 1.63 1.48 1.28 1.23 1.05 1.16 1.36 1.45 1.51 1.59 1.72 1.86 2.16 2.51 2.79 2.98 3.17 3.22 2.99 2.87 2.85 2.86 2.89 2.82 2.62 2.40 2.15 2.03 1.92
0.13 0.10 0.07 0.05 0.06 0.07 0.08 0.17 0.56 0.93 1.24 1.14 0.72 0.83 1.41 1.29 0.95 0.89 0.99 0.97 0.97 1.04 1.18 1.30 1.49 1.71 1.88 1.99 2.09 2.51 2.90 3.04 2.94 2.68 2.50 2.40 2.47 2.55 2.46 2.30 2.21 2.08 1.87 1.72
0.28 0.25 0.13 0.09 0.12 0.13 0.13 0.24 0.70 0.96 1.00 0.99 0.79 1.19 1.68 1.29 0.87 0.71 0.81 0.83 0.74 0.69 0.67 0.76 0.94 1.06 1.16 1.18 1.24 1.40 1.66 1.91 2.00 1.87 1.85 1.87 1.91 1.95 1.93 2.03 1.90 1.87 1.76 1.61
0.16 0.15 0.10 0.12 0.17 0.18 0.24 0.28 0.30 0.50 0.69 1.04 1.04 1.22 1.29 1.05 0.84 0.78 0.88 0.81 0.65 0.60 0.56 0.62 0.72 0.73 0.83 0.88 0.94 1.08 1.30 1.50 1.53 1.51 1.51 1.55 1.57 1.58 1.60 1.63 1.57 1.55 1.59 1.50
0.10 0.10 0.11 0.11 0.15 0.18 0.20 0.28 0.43 0.68 0.91 1.05 1.12 1.39 1.53 1.37 1.14 0.99 0.95 0.82 0.62 0.52 0.51 0.57 0.68 0.67 0.78 0.94 1.10 1.23 1.32 1.39 1.37 1.35 1.33 1.26 1.36 1.37 1.41 1.38 1.30 1.29 1.35 1.35
0.08 0.10 0.13 0.18 0.22 0.22 0.23 0.30 0.46 0.64 0.70 0.90 1.25 1.34 1.06 1.01 1.03 1.09 1.10 0.92 0.66 0.51 0.47 0.52 0.65 0.71 0.79 0.91 1.04 1.17 1.27 1.34 1.30 1.25 1.29 1.33 1.34 1.34 1.32 1.27 1.19 1.24 1.29 1.29
0.09 0.11 0.17 0.25 0.22 0.16 0.22 0.32 0.48 0.71 0.77 0.81 0.95 1.05 0.64 0.63 0.75 0.86 0.89 0.72 0.54 0.47 0.45 0.52 0.63 0.67 0.79 0.89 0.94 0.95 1.04 1.20 1.22 1.22 1.32 1.44 1.42 1.39 1.29 1.18 1.13 1.16 1.19 1.21
0.15 0.15 0.27 0.54 0.50 0.27 0.25 0.25 0.36 0.49 0.60 0.69 0.89 1.03 0.63 0.62 0.77 0.81 0.77 0.62 0.55 0.54 0.56 0.63 0.65 0.66 0.73 0.80 0.85 0.84 0.93 1.07 1.20 1.24 1.31 1.41 1.36 1.31 1.20 1.11 1.12 1.12 1.13 1.18
0.13 0.14 0.24 0.62 0.67 0.44 0.32 0.28 0.31 0.44 0.55 0.52 0.52 0.70 0.71 0.72 0.85 0.83 0.78 0.68 0.68 0.61 0.63 0.72 0.79 0.72 0.70 0.71 0.74 0.76 0.88 1.06 1.09 1.10 1.14 1.20 1.16 1.13 1.14 1.14 1.08 1.04 1.10 1.15
0.13 0.17 0.17 0.27 0.37 0.41 0.38 0.31 0.27 0.30 0.33 0.43 0.46 0.61 0.77 0.82 0.85 0.74 0.68 0.68 0.71 0.66 0.58 0.61 0.57 0.56 0.57 0.59 0.62 0.67 0.71 0.83 0.97 1.05 1.09 1.15 1.18 1.15 1.13 1.08 1.00 1.01 1.02 0.96
0.20 0.24 0.22 0.30 0.38 0.41 0.41 0.36 0.30 0.25 0.26 0.31 0.38 0.55 0.61 0.72 0.73 0.70 0.61 0.61 0.64 0.53 0.46 0.45 0.39 0.36 0.40 0.46 0.51 0.56 0.59 0.68 0.81 0.84 0.91 1.09 1.18 1.13 1.09 0.99 0.94 0.92 0.94 1.03
0.31 0.33 0.33 0.38 0.46 0.55 0.58 0.36 0.32 0.32 0.29 0.41 0.63 0.71 0.66 0.82 0.83 0.70 0.59 0.51 0.47 0.42 0.40 0.36 0.31 0.31 0.36 0.42 0.49 0.55 0.63 0.68 0.74 0.77 0.82 0.86 0.96 1.03 0.99 0.89 0.87 0.89 0.96 1.09
0.36 0.51 0.53 0.50 0.67 0.83 0.67 0.39 0.31 0.36 0.36 0.36 0.49 0.53 0.59 0.80 0.85 0.65 0.51 0.48 0.43 0.39 0.38 0.35 0.37 0.40 0.49 0.51 0.57 0.70 0.81 0.82 0.81 0.86 0.87 0.84 0.87 0.95 0.98 0.94 0.92 0.99 1.06 1.11
0.31 0.51 0.58 0.63 0.78 0.79 0.66 0.52 0.45 0.49 0.56 0.40 0.43 0.48 0.47 0.53 0.61 0.65 0.47 0.50 0.53 0.46 0.45 0.43 0.43 0.48 0.61 0.61 0.65 0.78 0.83 0.87 0.89 0.89 0.89 0.88 0.90 0.96 1.01 0.99 1.05 1.15 1.25 1.18
0.41 0.53 0.67 0.64 0.81 0.97 0.79 0.61 0.52 0.59 0.98 0.63 0.44 0.42 0.45 0.50 0.73 0.82 0.56 0.46 0.46 0.46 0.51 0.55 0.54 0.59 0.66 0.69 0.80 0.90 0.94 1.01 1.04 0.98 0.94 0.98 1.07 1.12 1.17 1.26 1.42 1.50 1.51 1.44
0.81 0.84 0.82 0.78 0.85 0.87 0.76 0.59 0.54 0.98 1.20 0.71 0.55 0.47 0.50 0.54 0.63 0.66 0.56 0.48 0.45 0.51 0.62 0.71 0.82 0.88 0.92 0.85 0.94 1.06 1.15 1.21 1.18 1.22 1.23 1.25 1.36 1.43 1.48 1.65 1.78 1.83 1.82 1.91
1.06 1.07 1.02 1.01 1.16 1.18 0.85 0.82 0.99 1.15 1.02 0.80 0.67 0.62 0.55 0.52 0.50 0.54 0.54 0.56 0.54 0.60 0.74 0.81 0.89 0.95 1.01 1.09 1.19 1.23 1.25 1.30 1.41 1.45 1.50 1.56 1.70 1.63 1.63 1.85 1.94 2.07 2.19 2.16
1.04 1.08 1.10 1.16 1.21 1.09 0.97 1.10 1.15 1.03 1.08 1.01 0.82 0.76 0.68 0.63 0.54 0.50 0.54 0.60 0.64 0.66 0.70 0.79 0.87 0.95 1.08 1.17 1.27 1.43 1.47 1.47 1.57 1.68 1.75 1.87 2.00 2.12 2.15 2.23 2.27 2.29 2.31 2.28
1.15 1.00 1.15 1.32 1.36 1.26 1.28 1.25 1.20 1.16 1.12 1.00 0.83 0.81 0.74 0.67 0.58 0.58 0.60 0.62 0.64 0.66 0.64 0.68 0.80 0.96 1.09 1.22 1.40 1.62 1.64 1.56 1.65 1.80 1.83 1.95 2.11 2.18 2.25 2.38 2.40 2.38 2.37 2.40
1.29 1.25 1.50 1.68 1.65 1.64 1.65 1.49 1.29 1.16 1.01 0.92 0.81 0.78 0.71 0.67 0.64 0.60 0.61 0.64 0.61 0.58 0.60 0.66 0.74 0.90 1.02 1.04 1.23 1.47 1.62 1.69 1.81 1.89 1.96 2.09 2.24 2.35 2.43 2.33 2.36 2.40 2.42 2.36
1.32 1.39 1.61 1.81 1.66 1.63 1.69 1.50 1.23 1.18 1.17 1.08 1.04 1.01 0.89 0.81 0.79 0.70 0.61 0.58 0.55 0.55 0.60 0.69 0.73 0.79 0.89 0.97 1.14 1.30 1.52 1.69 1.94 1.99 2.04 2.14 2.22 2.35 2.37 2.35 2.24 2.12 2.01 1.97